                ,  0.290,  0.386,  0.483,  0.580,  0.676,  0.773,  0.869,  0.966,  1.063,  1.159,  1.256,  1.352,  1.449,  1.545,  1.642,  1.739,  1.835,  1.932,  2.028,  2.125,  2.222,  2.318,  2.415,  2.511,  2.608,  2.705,  2.801,  2.898,  2.994,  3.091,  3.188,  3.284,  3.381,  3.477,  3.574,  3.671,  3.767,  3.864,  3.960,  4.057,  4.153,  4.250,  4.347,  4.443,  4.540,  4.636,  4.733,  4.830,  4.926,  5.023,  5.119,  5.216,  5.313,  5.409,  5.506,  5.602,  5.699,  5.796
2000/12/03 00:00,  999.0,  999.0,  999.0,  999.0,  999.0,   21.7,  999.0,  999.0,  999.0,  999.0,  999.0,  999.0,   11.4,  999.0,  999.0,  999.0,  999.0,  999.0,  999.0,  999.0,  999.0,  999.0,  999.0,  999.0,  999.0,  999.0,  999.0,  999.0,  999.0,  999.0,  999.0,  999.0,  999.0,  999.0,  999.0,  999.0,  999.0,  999.0,  999.0,  999.0,  999.0,  999.0,  999.0,  999.0,  999.0,  999.0,  999.0,  999.0,  999.0,  999.0,  999.0,  999.0,  999.0,  999.0,  999.0,  999.0,  999.0,  999.0
2000/12/03 00:10,  999.0,    5.3,   21.3,    5.0,   21.6,   21.5,   22.2,   21.5,  999.0,   20.8,  999.0,   14.2,  999.0,  999.0,   10.1,    9.6,  999.0,  999.0,  999.0,  999.0,  999.0,  999.0,  999.0,  999.0,  999.0,  999.0,  999.0,  999.0,  999.0,  999.0,  999.0,  999.0,  999.0,  999.0,  999.0,  999.0,  999.0,  999.0,  999.0,  999.0,  999.0,  999.0,  999.0,  999.0,  999.0,  999.0,  999.0,  999.0,  999.0,  999.0,  999.0,  999.0,  999.0,  999.0,  999.0,  999.0,  999.0,  999.0
2000/12/03 00:20,  999.0,  999.0,   21.1,  999.0,   21.9,  999.0,   21.6,   15.2,  999.0,  999.0,   15.4,  999.0,  999.0,  999.0,    9.6,  999.0,   20.3,  999.0,  999.0,  999.0,  999.0,  999.0,  999.0,  999.0,   22.7,  999.0,  999.0,  999.0,  999.0,  999.0,  999.0,  999.0,  999.0,  999.0,  999.0,  999.0,  999.0,  999.0,  999.0,  999.0,  999.0,  999.0,  999.0,  999.0,  999.0,  999.0,  999.0,  999.0,  999.0,  999.0,  999.0,  999.0,  999.0,  999.0,  999.0,  999.0,  999.0,  999.0
2000/12/03 00:30,  999.0,  999.0,  999.0,   22.0,   21.9,  999.0,  999.0,   12.9,  999.0,  999.0,   11.3,   11.5,   12.0,   10.9,   10.3,    9.5,  999.0,  999.0,  999.0,  999.0,  999.0,  999.0,  999.0,  999.0,  999.0,  999.0,  999.0,  999.0,  999.0,  999.0,  999.0,  999.0,  999.0,  999.0,  999.0,  999.0,  999.0,  999.0,  999.0,  999.0,  999.0,  999.0,  999.0,  999.0,  999.0,  999.0,  999.0,  999.0,  999.0,  999.0,  999.0,  999.0,  999.0,  999.0,  999.0,  999.0,  999.0,  999.0
2000/12/03 00:40,  999.0,  999.0,   21.1,  999.0,  999.0,   14.2,   14.3,   18.6,  999.0,   12.9,   10.1,   11.7,   11.8,    9.8,   10.9,  999.0,   21.9,  999.0,  999.0,   21.2,  999.0,  999.0,   18.3,   17.8,   17.3,   16.8,  999.0,   15.4,   14.5,   14.5,   13.1,  999.0,   12.0,   11.2,  999.0,  999.0,    9.6,    9.2,    7.7,  999.0,    6.7,  999.0,    5.0,    4.5,    3.9,  999.0,    2.1,  999.0,  999.0,    1.7,  999.0,    0.8,    0.0,  999.0,  999.0,  999.0,  999.0,    0.8
2000/12/03 00:50,  999.0,  999.0,  999.0,  999.0,  999.0,   10.5,  999.0,  999.0,  999.0,   13.2,   11.8,   11.4,   10.9,   10.3,    9.2,  999.0,  999.0,  999.0,  999.0,  999.0,   18.6,  999.0,  999.0,  999.0,  999.0,  999.0,   14.5,   14.0,  999.0,   12.7,  999.0,  999.0,  999.0,    9.6,  999.0,    7.6,    7.4,    6.4,    6.3,  999.0,  999.0,    4.4,  999.0,  999.0,    1.6,  999.0,  999.0,  999.0,  999.0,    0.3,  999.0,  999.0,   -0.2,    0.4,    0.6,  999.0,  999.0,  999.0
2000/12/03 01:00,  999.0,   23.1,   21.2,  999.0,  999.0,  999.0,  999.0,   20.8,   18.6,    4.4,  999.0,    7.7,    9.2,  999.0,  999.0,    7.8,  999.0,  999.0,   20.0,  999.0,   16.7,   16.7,   15.8,   14.7,   12.6,   13.4,   12.3,   11.7,    9.7,    9.1,    8.3,    7.7,    6.7,    5.6,    4.7,    3.0,    3.3,    1.9,    1.0,    1.3,    0.5,    0.6,    0.6,    0.4,    0.8,   -0.1,    0.8,    0.3,    0.8,    1.0,    1.1,    1.0,    0.8,    0.2,    0.5,    0.7,    0.5,    0.3
2000/12/03 01:10,  999.0,   25.4,   23.1,   21.6,  999.0,  999.0,  999.0,   22.7,   22.8,  999.0,  999.0,  999.0,   10.8,    9.4,    7.7,    9.0,  999.0,   14.7,  999.0,   11.6,  999.0,   14.4,  999.0,  999.0,  999.0,  999.0,  999.0,  999.0,  999.0,  999.0,  999.0,  999.0,  999.0,  999.0,  999.0,  999.0,    1.3,    1.0,  999.0,  999.0,    0.7,  999.0,  999.0,  999.0,    0.7,    0.6,  999.0,    0.7,  999.0,  999.0,    0.4,    0.8,    0.4,  999.0,    0.9,  999.0,  999.0,    0.5
2000/12/03 01:20,  999.0,  999.0,   21.3,  999.0,  999.0,  999.0,   15.0,   12.9,   13.3,   15.0,   13.9,   10.5,   10.1,    9.8,  999.0,    9.5,  999.0,  999.0,  999.0,  999.0,  999.0,    4.4,  999.0,  999.0,  999.0,  999.0,  999.0,  999.0,    5.9,  999.0,    6.1,    2.7,    4.3,    1.3,    2.0,    0.3,    0.7,    0.8,  999.0,    0.8,    0.7,  999.0,    1.7,    0.9,    1.1,    0.8,    1.5,    1.3,    0.6,    1.0,    0.7,    0.7,  999.0,    0.9,    1.5,    1.8,    1.3,    0.6
2000/12/03 01:30,  999.0,   20.9,  999.0,   21.9,  999.0,   16.8,  999.0,    9.8,   10.3,  999.0,   10.7,    9.7,    9.0,    8.7,    9.1,    8.9,   10.1,    8.3,  999.0,  999.0,  999.0,  999.0,  999.0,  999.0,  999.0,  999.0,  999.0,   10.4,    8.9,  999.0,    6.4,  999.0,  999.0,  999.0,  999.0,  999.0,    0.2,  999.0,  999.0,  999.0,    0.6,  999.0,  999.0,  999.0,    0.5,  999.0,    0.7,    1.6,    0.4,  999.0,  999.0,  999.0,  999.0,    0.9,  999.0,  999.0,  999.0,  999.0
2000/12/03 01:40,  999.0,  999.0,  999.0,   21.6,  999.0,  999.0,   21.5,   11.4,   15.1,   20.9,  999.0,  999.0,    6.3,    8.4,    9.0,    9.4,    9.8,  999.0,  999.0,  999.0,  999.0,  999.0,  999.0,  999.0,    5.8,  999.0,  999.0,  999.0,    0.3,  999.0,  999.0,    0.9,  999.0,    1.4,  999.0,    0.2,    1.4,  999.0,  999.0,  999.0,    1.0,  999.0,  999.0,  999.0,  999.0,    1.4,  999.0,  999.0,  999.0,  999.0,  999.0,  999.0,  999.0,  999.0,  999.0,  999.0,  999.0,  999.0
2000/12/03 01:50,  999.0,  999.0,  999.0,   21.0,  999.0,  999.0,    9.5,  999.0,  999.0,   12.3,   12.6,    5.4,    7.3,    7.7,    8.5,    9.4,    9.9,    9.6,   19.3,  999.0,  999.0,  999.0,   11.8,  999.0,  999.0,  999.0,    3.2,  999.0,    1.1,  999.0,    0.4,  999.0,    0.8,    0.8,  999.0,  999.0,  999.0,    1.0,    1.4,    0.4,  999.0,   -0.1,  999.0,    0.4,  999.0,    1.5,  999.0,  999.0,  999.0,  999.0,  999.0,  999.0,  999.0,  999.0,  999.0,  999.0,  999.0,  999.0
2000/12/03 02:00,  999.0,  999.0,  999.0,  999.0,   10.9,   11.4,   13.4,   12.9,  999.0,  999.0,    4.0,  999.0,   10.4,    9.6,    9.0,   10.0,  999.0,    7.7,  999.0,  999.0,  999.0,  999.0,  999.0,  999.0,  999.0,  999.0,  999.0,  999.0,  999.0,  999.0,  999.0,  999.0,  999.0,  999.0,  999.0,    0.8,  999.0,    0.0,  999.0,    0.6,    1.0,    0.7,  999.0,    0.1,    0.6,    1.5,  999.0,  999.0,  999.0,    1.1,    0.9,  999.0,  999.0,  999.0,    0.4,    0.1,    1.0,    0.2
2000/12/03 02:10,  999.0,  999.0,    4.7,    6.9,    8.7,  999.0,  999.0,  999.0,   14.1,   13.5,  999.0,  999.0,   10.5,   10.7,   10.0,   11.1,  999.0,  999.0,    6.3,  999.0,  999.0,  999.0,  999.0,  999.0,  999.0,  999.0,  999.0,  999.0,  999.0,  999.0,  999.0,  999.0,  999.0,  999.0,  999.0,  999.0,  999.0,  999.0,  999.0,  999.0,  999.0,  999.0,  999.0,  999.0,  999.0,  999.0,  999.0,  999.0,  999.0,  999.0,  999.0,  999.0,  999.0,  999.0,  999.0,  999.0,  999.0,  999.0
2000/12/03 02:20,  999.0,    4.7,    2.5,   10.4,    9.1,  999.0,   13.9,   13.7,  999.0,  999.0,  999.0,  999.0,   10.1,   11.8,   12.7,  999.0,  999.0,    9.6,  999.0,  999.0,  999.0,  999.0,  999.0,  999.0,  999.0,  999.0,  999.0,  999.0,  999.0,  999.0,  999.0,  999.0,  999.0,  999.0,  999.0,  999.0,  999.0,  999.0,  999.0,  999.0,  999.0,  999.0,  999.0,  999.0,  999.0,  999.0,  999.0,  999.0,  999.0,  999.0,  999.0,  999.0,  999.0,  999.0,  999.0,  999.0,  999.0,  999.0
2000/12/03 02:30,  999.0,    2.5,    8.0,   10.4,   11.3,  999.0,   13.2,    9.8,  999.0,    9.7,   12.3,    9.6,    8.1,    8.6,  999.0,  999.0,  999.0,   -0.0,   -0.9,  999.0,  999.0,  999.0,  999.0,  999.0,  999.0,  999.0,  999.0,  999.0,  999.0,  999.0,  999.0,  999.0,  999.0,  999.0,  999.0,  999.0,  999.0,  999.0,  999.0,  999.0,  999.0,  999.0,  999.0,  999.0,  999.0,  999.0,  999.0,  999.0,  999.0,  999.0,  999.0,  999.0,  999.0,  999.0,  999.0,  999.0,  999.0,  999.0
2000/12/03 02:40,  999.0,    2.2,    5.0,    9.1,    6.4,   10.7,  999.0,  999.0,  999.0,  999.0,   -2.1,   -1.9,   11.1,  999.0,   11.5,    3.3,    0.3,   -0.6,   -0.5,  999.0,  999.0,  999.0,  999.0,  999.0,  999.0,  999.0,  999.0,  999.0,  999.0,  999.0,  999.0,  999.0,  999.0,  999.0,  999.0,  999.0,  999.0,  999.0,  999.0,    0.8,  999.0,    0.7,    0.3,  999.0,  999.0,  999.0,    1.3,    1.4,  999.0,    0.9,    0.7,  999.0,    0.6,    0.4,  999.0,    0.4,  999.0,    0.5
2000/12/03 02:50,  999.0,    5.7,  999.0,    5.4,    6.9,    6.8,   11.7,   10.0,    8.6,    1.7,  999.0,    1.9,    2.3,    6.6,    2.4,    2.5,    0.3,   -0.1,    4.0,  999.0,  999.0,  999.0,  999.0,  999.0,  999.0,  999.0,  999.0,  999.0,  999.0,  999.0,  999.0,  999.0,  999.0,  999.0,  999.0,  999.0,  999.0,  999.0,  999.0,  999.0,  999.0,  999.0,  999.0,  999.0,  999.0,  999.0,  999.0,  999.0,  999.0,  999.0,  999.0,  999.0,  999.0,  999.0,  999.0,  999.0,  999.0,  999.0
2000/12/03 03:00,  999.0,    2.1,   -1.2,    3.2,  999.0,  999.0,    9.3,   10.8,   11.5,    8.6,  999.0,    1.1,  999.0,    4.7,    7.2,    8.7,  999.0,  999.0,  999.0,   20.7,   20.6,  999.0,   19.8,   19.0,  999.0,  999.0,  999.0,    6.5,    4.8,    3.6,   14.8,  999.0,  999.0,  999.0,   11.2,    1.4,  999.0,    7.1,   10.5,  999.0,    0.7,    4.3,    4.3,    6.7,  999.0,    6.1,    4.9,    4.4,    2.2,    3.6,    1.9,    1.4,    0.7,    1.3,    1.0,    0.6,  999.0,    0.7
2000/12/03 03:10,  999.0,    5.6,  999.0,    0.9,    2.4,    4.9,    3.7,    1.7,    2.6,    7.3,   12.0,  999.0,  999.0,    1.2,    2.9,    0.9,   -0.1,  999.0,  999.0,  999.0,   13.2,   17.1,   16.5,  999.0,  999.0,   14.5,  999.0,   13.4,   11.6,   11.2,    6.2,    9.5,  999.0,    5.4,  999.0,    4.9,    5.8,    4.6,  999.0,    2.6,  999.0,    0.7,    3.5,    2.0,    0.2,    0.4,    0.9,    0.5,    0.1,    1.0,    0.6,    0.4,    0.6,    0.9,    0.5,    0.4,   -0.2,    0.9
2000/12/03 03:20,  999.0,  999.0,    0.1,  999.0,    3.6,    2.4,    1.1,  999.0,    9.3,    9.0,    8.9,    3.7,  999.0,    7.2,    2.1,   -1.8,   -0.5,    0.5,  999.0,   10.4,    9.0,   14.8,   14.0,  999.0,   10.5,   10.3,  999.0,    6.5,    5.2,  999.0,  999.0,    1.0,  999.0,    0.4,  999.0,  999.0,    0.4,    0.9,  999.0,    0.2,  999.0,   -0.2,    0.7,    0.9,  999.0,    1.2,  999.0,    0.4,  999.0,  999.0,  999.0,  999.0,    1.5,  999.0,    0.7,  999.0,  999.0,  999.0
2000/12/03 03:30,  999.0,  999.0,  999.0,  999.0,  999.0,    5.0,    4.3,    9.6,   11.6,   11.1,    9.2,    5.9,    5.2,    6.2,    5.2,   10.9,    3.5,   -0.4,   -1.7,  999.0,  999.0,  999.0,  999.0,  999.0,  999.0,  999.0,  999.0,  999.0,  999.0,  999.0,  999.0,  999.0,  999.0,  999.0,  999.0,  999.0,  999.0,  999.0,  999.0,  999.0,  999.0,  999.0,  999.0,  999.0,  999.0,  999.0,  999.0,  999.0,  999.0,  999.0,  999.0,  999.0,  999.0,  999.0,  999.0,  999.0,  999.0,  999.0
2000/12/03 03:40,  999.0,  999.0,  999.0,    5.5,    6.6,    5.5,    6.4,  999.0,    7.3,    4.4,    1.7,    4.1,    1.9,   -1.7,    2.0,    7.2,    5.7,  999.0,  999.0,    4.7,  999.0,  999.0,  999.0,  999.0,  999.0,  999.0,  999.0,  999.0,  999.0,  999.0,  999.0,  999.0,  999.0,  999.0,  999.0,  999.0,  999.0,  999.0,  999.0,  999.0,  999.0,  999.0,  999.0,  999.0,  999.0,  999.0,  999.0,  999.0,  999.0,  999.0,  999.0,  999.0,  999.0,  999.0,  999.0,  999.0,  999.0,  999.0
2000/12/03 03:50,  999.0,  999.0,  999.0,    9.9,    6.3,    8.0,   11.0,    7.2,  999.0,    5.9,    3.0,    7.6,    3.3,    3.0,    2.8,    0.6,    2.8,   -0.5,   -1.1,    0.2,   -3.8,  999.0,  999.0,  999.0,  999.0,  999.0,  999.0,  999.0,   -0.1,  999.0,  999.0,  999.0,  999.0,  999.0,  999.0,  999.0,  999.0,  999.0,  999.0,  999.0,  999.0,  999.0,  999.0,  999.0,  999.0,  999.0,  999.0,  999.0,  999.0,  999.0,  999.0,  999.0,  999.0,  999.0,  999.0,  999.0,  999.0,  999.0
2000/12/03 04:00,  999.0,    1.5,    0.9,   -0.4,   -1.8,    2.2,    1.9,    1.4,    0.7,    1.6,    0.1,    1.1,    3.0,    3.8,    3.4,    1.7,    0.2,    1.1,   -2.2,    1.5,  999.0,  999.0,  999.0,  999.0,  999.0,  999.0,  999.0,  999.0,  999.0,  999.0,  999.0,  999.0,  999.0,  999.0,  999.0,  999.0,  999.0,  999.0,  999.0,  999.0,  999.0,  999.0,  999.0,  999.0,  999.0,  999.0,  999.0,  999.0,  999.0,  999.0,  999.0,  999.0,  999.0,  999.0,  999.0,  999.0,  999.0,  999.0
2000/12/03 04:10,  999.0,    6.3,    7.2,   -0.3,    0.3,   -1.9,    1.3,   -0.1,    0.5,    1.5,    1.8,    3.0,    5.6,    3.6,    2.0,    2.5,    1.2,    0.1,    0.7,   -2.8,   -3.6,  999.0,  999.0,  999.0,  999.0,  999.0,  999.0,  999.0,  999.0,  999.0,  999.0,  999.0,  999.0,  999.0,  999.0,  999.0,  999.0,  999.0,  999.0,  999.0,  999.0,  999.0,  999.0,  999.0,  999.0,  999.0,  999.0,  999.0,  999.0,  999.0,  999.0,  999.0,  999.0,  999.0,  999.0,  999.0,  999.0,  999.0
2000/12/03 04:20,  999.0,  999.0,    0.7,   -0.7,    1.5,    0.7,    1.5,    2.3,    1.6,    2.3,    3.0,    1.4,    7.5,    4.2,    1.8,    0.2,    1.6,    1.5,    1.8,   -2.4,   -4.8,  999.0,  999.0,  999.0,  999.0,  999.0,  999.0,  999.0,  999.0,  999.0,  999.0,  999.0,  999.0,  999.0,  999.0,  999.0,  999.0,  999.0,  999.0,  999.0,  999.0,  999.0,  999.0,  999.0,  999.0,  999.0,  999.0,  999.0,  999.0,  999.0,  999.0,  999.0,  999.0,  999.0,  999.0,  999.0,  999.0,  999.0
2000/12/03 04:30,  999.0,    0.7,   -1.5,    0.2,    0.4,    1.6,   -0.8,    2.9,    4.5,    4.0,    3.0,    3.1,    0.1,    1.5,    1.4,    1.3,    3.0,    0.8,   -0.4,   -0.2,   -0.2,  999.0,  999.0,  999.0,  999.0,  999.0,  999.0,  999.0,  999.0,  999.0,  999.0,  999.0,  999.0,  999.0,  999.0,  999.0,  999.0,  999.0,  999.0,  999.0,  999.0,  999.0,  999.0,  999.0,  999.0,  999.0,  999.0,  999.0,  999.0,  999.0,  999.0,  999.0,  999.0,  999.0,  999.0,  999.0,  999.0,  999.0
2000/12/03 04:40,  999.0,  999.0,    4.6,    2.8,   -0.4,    2.0,    1.2,    0.6,   -1.7,    2.1,    2.1,    3.3,    1.9,    1.2,    2.9,    0.8,   -1.2,    0.1,    1.3,    0.3,    0.1,  999.0,    1.5,    0.2,  999.0,  999.0,  999.0,  999.0,  999.0,  999.0,  999.0,  999.0,  999.0,  999.0,  999.0,  999.0,  999.0,  999.0,  999.0,  999.0,  999.0,  999.0,  999.0,  999.0,  999.0,  999.0,  999.0,  999.0,  999.0,  999.0,  999.0,  999.0,  999.0,  999.0,  999.0,  999.0,  999.0,  999.0
2000/12/03 04:50,  999.0,   -0.5,    3.8,   -1.9,   -3.1,   -3.5,    6.3,   -1.0,    0.5,    0.2,    1.6,    0.6,    4.8,    2.9,    0.8,    1.3,    0.7,    0.5,    2.2,    0.7,  999.0,  999.0,  999.0,  999.0,  999.0,  999.0,  999.0,  999.0,  999.0,  999.0,  999.0,  999.0,  999.0,  999.0,  999.0,  999.0,  999.0,  999.0,  999.0,  999.0,  999.0,  999.0,  999.0,  999.0,  999.0,  999.0,  999.0,  999.0,  999.0,  999.0,  999.0,  999.0,  999.0,  999.0,  999.0,  999.0,  999.0,  999.0
2000/12/03 05:00,  999.0,  999.0,   -0.9,   -1.8,   -3.8,    6.0,    0.8,    1.1,    2.0,    1.2,    0.8,    5.5,    0.3,   -1.1,  999.0,    0.3,    0.4,    2.2,    4.2,  999.0,  999.0,  999.0,  999.0,  999.0,  999.0,  999.0,  999.0,  999.0,  999.0,  999.0,  999.0,  999.0,  999.0,  999.0,  999.0,  999.0,  999.0,  999.0,  999.0,  999.0,  999.0,  999.0,  999.0,  999.0,  999.0,  999.0,  999.0,  999.0,  999.0,  999.0,  999.0,  999.0,  999.0,  999.0,  999.0,  999.0,  999.0,  999.0
2000/12/03 05:10,  999.0,    1.4,    5.2,    6.2,  999.0,   10.5,  999.0,  999.0,  999.0,  999.0,  999.0,  999.0,   12.0,    8.8,    8.9,  999.0,  999.0,    7.9,    7.2,  999.0,  999.0,  999.0,  999.0,  999.0,  999.0,  999.0,  999.0,  999.0,  999.0,  999.0,  999.0,  999.0,  999.0,  999.0,  999.0,  999.0,  999.0,  999.0,  999.0,  999.0,  999.0,  999.0,  999.0,  999.0,  999.0,  999.0,  999.0,  999.0,  999.0,  999.0,  999.0,  999.0,  999.0,  999.0,  999.0,  999.0,  999.0,  999.0
2000/12/03 05:20,  999.0,    7.3,    6.0,    8.5,   10.8,   11.0,  999.0,  999.0,  999.0,    9.8,   11.2,  999.0,    8.8,    8.4,    8.6,    9.1,    9.3,    8.5,    8.8,   10.4,  999.0,  999.0,  999.0,  999.0,  999.0,  999.0,  999.0,  999.0,  999.0,  999.0,  999.0,  999.0,  999.0,  999.0,  999.0,  999.0,  999.0,  999.0,  999.0,  999.0,  999.0,  999.0,  999.0,  999.0,  999.0,  999.0,  999.0,  999.0,   -1.2,   -1.3,   -1.1,   -0.7,   -0.8,   -0.9,   -0.8,   -0.6,   -0.4,   -0.1
2000/12/03 05:30,  999.0,    7.6,    6.4,  999.0,    7.3,  999.0,  999.0,    9.6,  999.0,   11.3,    8.6,    8.7,    9.4,    9.4,    9.5,    8.8,    9.5,    8.4,    6.8,    7.3,  999.0,  999.0,  999.0,  999.0,  999.0,  999.0,  999.0,  999.0,  999.0,  999.0,  999.0,  999.0,  999.0,  999.0,  999.0,  999.0,  999.0,  999.0,  999.0,  999.0,   -0.6,  999.0,  999.0,  999.0,  999.0,   -0.4,   -1.3,   -1.1,   -0.5,   -0.5,   -0.6,   -0.8,   -0.8,   -0.7,   -1.0,   -0.5,   -0.6,    0.1
2000/12/03 05:40,  999.0,    8.3,    6.2,    6.9,    8.2,   10.6,  999.0,  999.0,  999.0,  999.0,    8.5,    9.6,    9.4,   10.4,    7.9,    8.1,    9.2,    6.3,    5.9,    5.8,    6.3,  999.0,  999.0,  999.0,  999.0,  999.0,  999.0,  999.0,  999.0,  999.0,  999.0,  999.0,  999.0,  999.0,   -0.1,   -0.3,   -0.9,   -0.3,   -0.8,  999.0,   -1.0,   -0.7,   -0.7,   -0.7,   -0.6,   -1.1,   -1.1,   -0.7,   -0.6,   -1.2,  999.0,   -0.8,   -0.8,   -1.1,   -1.3,   -0.7,   -1.1,   -1.0
2000/12/03 05:50,  999.0,    7.3,    4.0,    3.7,    4.8,    8.8,  999.0,    9.2,  999.0,  999.0,  999.0,    7.8,    8.6,    8.5,    9.3,    6.1,    8.3,    8.3,    4.9,    5.8,    8.4,  999.0,  999.0,  999.0,  999.0,  999.0,  999.0,  999.0,  999.0,  999.0,  999.0,  999.0,  999.0,   -2.2,  999.0,   -1.0,  999.0,   -1.0,   -1.2,   -0.5,   -0.5,   -1.0,   -0.1,   -0.8,   -0.5,   -0.8,   -0.8,   -0.9,   -0.9,   -1.3,   -0.9,   -0.4,   -0.6,   -0.9,   -0.5,   -0.8,   -0.7,   -0.5
2000/12/03 06:00,  999.0,    5.3,    2.7,    3.2,    0.7,  999.0,  999.0,  999.0,  999.0,    8.1,    9.1,  999.0,    7.4,    8.3,    9.0,    7.1,    8.6,    7.7,    6.7,    6.7,  999.0,  999.0,  999.0,  999.0,  999.0,  999.0,  999.0,  999.0,  999.0,  999.0,  999.0,  999.0,  999.0,   -0.9,   -0.6,   -0.9,   -1.1,  999.0,   -0.3,   -0.6,   -0.6,   -0.6,   -0.3,   -0.9,   -1.2,   -0.4,   -0.7,   -0.8,   -0.5,   -0.5,   -0.7,   -0.2,   -0.8,   -0.7,   -0.8,   -1.1,   -0.4,   -0.8
2000/12/03 06:10,  999.0,    3.8,    2.0,    3.8,    6.0,  999.0,    9.2,    8.1,    8.0,    6.4,  999.0,    6.0,  999.0,    8.9,    9.4,    8.2,    9.2,    7.1,    8.3,    8.2,    7.2,  999.0,  999.0,  999.0,  999.0,  999.0,  999.0,  999.0,  999.0,  999.0,  999.0,  999.0,  999.0,   -0.4,   -0.6,   -0.3,   -0.7,   -0.8,  999.0,   -0.4,   -0.3,   -0.9,   -0.2,   -1.4,   -1.1,   -1.1,   -0.6,   -0.1,   -0.3,   -0.6,   -0.9,   -0.4,   -0.9,   -0.6,   -0.7,   -1.1,   -0.2,   -0.6
2000/12/03 06:20,  999.0,    3.9,    3.2,    4.7,    3.7,  999.0,    7.1,    9.0,    8.9,    8.8,  999.0,   12.4,  999.0,    8.6,    9.0,    9.5,    8.8,    9.7,    9.7,    9.0,    9.5,   10.7,  999.0,  999.0,  999.0,  999.0,  999.0,  999.0,  999.0,  999.0,  999.0,  999.0,   -1.4,   -1.2,   -0.2,   -0.4,   -1.2,   -0.3,   -0.7,   -0.9,   -0.5,   -0.1,   -0.7,   -0.8,   -0.7,   -0.6,   -0.8,   -0.8,   -1.0,   -0.5,   -0.9,   -1.0,   -0.2,   -0.7,   -0.4,  999.0,   -1.1,   -0.4
2000/12/03 06:30,  999.0,    1.1,    0.3,    4.1,    4.6,    7.1,    8.4,    8.7,  999.0,  999.0,   10.6,   11.1,    8.9,    9.5,    9.5,   10.3,    9.7,  999.0,  999.0,   10.3,   10.9,   11.6,  999.0,  999.0,  999.0,  999.0,  999.0,  999.0,  999.0,  999.0,  999.0,  999.0,  999.0,   -0.5,   -1.3,   -0.9,   -0.7,   -0.6,   -1.1,   -0.7,   -0.8,   -0.9,   -1.3,   -1.0,   -0.9,   -0.9,   -0.8,  999.0,   -0.6,   -0.6,   -0.9,   -0.5,   -0.8,  999.0,  999.0,   -1.6,   -2.1,   -1.0
2000/12/03 06:40,  999.0,   -0.3,    0.1,    2.0,    6.4,  999.0,    0.8,  999.0,  999.0,    9.4,  999.0,  999.0,    9.6,    9.2,    9.7,    9.6,  999.0,  999.0,    8.7,    8.7,    7.9,    8.7,  999.0,  999.0,  999.0,  999.0,  999.0,  999.0,  999.0,  999.0,  999.0,  999.0,   -0.7,   -0.7,   -0.4,   -1.0,   -0.3,   -0.7,   -1.0,   -0.9,   -0.4,   -0.6,   -0.3,   -0.6,   -1.4,   -1.1,   -0.8,   -0.7,   -0.9,   -0.8,   -1.1,   -1.0,   -0.9,   -1.0,   -1.3,   -0.9,   -0.9,   -1.0
2000/12/03 06:50,  999.0,    0.9,    0.4,    1.6,    0.4,   -0.1,    0.6,  999.0,  999.0,  999.0,  999.0,  999.0,    9.1,    7.7,    7.9,    8.2,  999.0,    8.2,    7.3,    7.0,    7.7,    8.6,  999.0,  999.0,  999.0,  999.0,  999.0,  999.0,  999.0,  999.0,  999.0,  999.0,   -0.6,   -0.2,   -1.5,   -1.0,   -1.0,   -1.0,   -0.7,   -0.5,   -0.3,   -0.7,   -0.5,   -0.9,   -0.7,   -1.0,   -1.0,   -1.1,   -0.9,   -0.5,   -0.6,   -0.7,   -0.5,   -0.4,   -0.5,   -0.5,   -0.5,   -0.6
2000/12/03 07:00,  999.0,  999.0,  999.0,    2.6,    3.2,  999.0,  999.0,    9.2,    9.5,  999.0,  999.0,  999.0,    7.4,    8.8,    8.7,    9.0,    9.4,  999.0,    9.2,   10.0,    9.8,    9.3,  999.0,  999.0,  999.0,  999.0,  999.0,  999.0,  999.0,  999.0,  999.0,  999.0,   -2.3,   -1.2,   -1.3,   -1.3,   -1.1,   -1.0,   -0.9,   -0.6,   -0.7,   -1.1,   -1.1,   -0.6,   -0.9,   -0.6,   -0.9,   -1.1,   -0.5,   -0.7,   -0.9,   -0.5,   -0.8,   -0.7,   -0.9,   -0.8,   -0.9,   -0.5
2000/12/03 07:10,  999.0,    1.8,   -0.6,   -0.2,    4.9,    7.2,    7.7,    8.5,    8.7,  999.0,  999.0,  999.0,  999.0,    8.5,    8.4,  999.0,  999.0,  999.0,   12.1,   13.9,   13.4,   14.4,  999.0,  999.0,  999.0,  999.0,  999.0,  999.0,  999.0,  999.0,  999.0,  999.0,   -0.9,   -0.8,  999.0,  999.0,   -0.9,   -0.8,  999.0,   -0.6,  999.0,   -0.6,   -0.4,   -0.7,  999.0,  999.0,   -1.0,   -1.9,   -1.6,   -1.2,  999.0,  999.0,   -1.0,   -0.5,  999.0,  999.0,   -0.6,  999.0
2000/12/03 07:20,  999.0,    3.8,  999.0,   -0.1,  999.0,    6.9,    7.8,    8.1,  999.0,  999.0,  999.0,  999.0,  999.0,    7.9,    8.9,    7.4,    8.8,  999.0,   10.4,   10.2,  999.0,   11.3,    9.7,  999.0,  999.0,  999.0,  999.0,  999.0,  999.0,  999.0,  999.0,  999.0,   -3.7,   -2.8,   -1.9,   -1.6,   -1.1,   -0.9,   -0.7,   -0.8,   -0.6,   -1.1,   -0.9,   -0.4,   -0.8,   -1.1,   -0.9,   -0.7,   -0.7,   -0.6,   -0.8,  999.0,   -0.7,   -0.4,   -1.0,   -0.4,   -0.5,   -0.2
2000/12/03 07:30,  999.0,    0.4,  999.0,    1.6,    4.5,    6.5,    7.8,    9.8,  999.0,  999.0,  999.0,  999.0,  999.0,  999.0,   15.1,   17.5,  999.0,  999.0,  999.0,    8.8,  999.0,  999.0,  999.0,  999.0,  999.0,  999.0,  999.0,  999.0,   -0.4,   -0.8,   -0.5,   -6.4,   -5.2,   -8.1,   -9.5,  999.0,   -8.9,  -11.1,   -7.9,  -10.7,   -6.7,  -17.1,   -5.9,  999.0,  -22.2,   -4.2,   -4.0,  -25.9,  -28.1,  -15.7,   -1.7,  999.0,  -17.5,  -17.8,  -18.7,  999.0,  -40.0,   -0.5
2000/12/03 07:40,  999.0,  999.0,   -0.2,    3.4,    7.0,  999.0,    6.7,  999.0,   21.5,  999.0,  999.0,   21.7,   20.3,   14.4,    7.6,  999.0,  999.0,   22.5,   25.6,   27.5,    6.1,    6.0,  999.0,  999.0,  999.0,   36.8,  999.0,  999.0,   13.2,   12.6,  999.0,   13.9,  999.0,   14.1,   41.4,    3.8,   41.4,   -0.8,   20.1,   41.3,   -7.3,   -5.4,   -5.7,    8.5,   13.5,   14.4,   14.9,   38.2,   -4.2,   -3.3,   -1.6,   -1.2,   -3.8,    9.5,   -1.4,    9.1,   -0.8,   -1.2
2000/12/03 07:50,  999.0,    1.7,    1.0,    4.3,    5.7,  999.0,  999.0,  999.0,  999.0,   21.2,   21.2,   21.8,   21.5,   20.9,   20.9,   20.6,   20.4,   22.6,  999.0,   24.0,  999.0,    9.9,   13.9,  999.0,  999.0,   26.9,   33.8,   32.4,   36.5,   34.0,  999.0,  999.0,   -8.4,   -7.6,   23.3,   18.0,   -4.7,  999.0,   19.5,   19.9,  999.0,   20.5,   -1.3,   41.5,    0.1,   13.5,   -0.8,   -0.3,    6.3,   -0.7,    9.8,   -0.8,   -1.0,   -0.8,   -0.9,    9.8,   13.6,   -1.0
2000/12/03 08:00,  999.0,    3.4,    2.1,    3.7,    4.6,  999.0,  999.0,   21.1,   21.5,   21.0,   21.7,   21.6,   21.9,   22.3,   25.1,   23.8,   19.3,   25.9,   27.0,  999.0,   32.4,  999.0,  999.0,  999.0,  999.0,   38.3,   39.3,   41.1,   42.1,   40.5,   42.2,   41.5,   42.0,   41.7,  999.0,   42.3,   42.0,  999.0,   42.1,  999.0,   41.7,   42.2,  999.0,   20.7,   13.8,   -0.7,   -0.7,    9.6,   21.0,   -0.9,   42.1,   -0.4,   -0.7,   13.7,   -0.9,   -0.6,   -0.7,    9.8
2000/12/03 08:10,  999.0,    1.6,    2.7,    4.0,    6.7,  999.0,  999.0,   21.8,  999.0,   21.4,   21.8,  999.0,  999.0,  999.0,   20.1,    9.2,  999.0,  999.0,  999.0,  999.0,    8.0,   11.5,   10.1,  999.0,  999.0,   36.2,   34.3,   39.0,   40.0,   38.4,   41.5,   41.9,   40.8,   42.0,   41.8,   41.8,   41.6,   41.5,   41.6,   41.6,   41.9,   41.6,   42.2,   42.0,   41.7,   41.8,   41.8,   41.8,   41.9,   41.6,   41.7,   41.8,   41.5,   42.3,   41.4,   41.9,   41.7,   42.0
2000/12/03 08:20,  999.0,    1.3,    2.0,    3.3,  999.0,  999.0,  999.0,  999.0,  999.0,  999.0,  999.0,  999.0,  999.0,   11.0,  999.0,    9.0,    9.2,    5.2,    6.5,    6.0,    1.1,  999.0,  999.0,  999.0,  999.0,  999.0,  999.0,    6.1,   12.5,   18.2,  999.0,   28.9,  999.0,   40.3,  999.0,    6.6,  999.0,   17.3,   33.6,   18.3,  999.0,    0.8,  999.0,   30.2,  999.0,    5.5,  999.0,   32.0,   42.1,  999.0,   12.7,  999.0,  -29.9,  -19.5,  999.0,  999.0,  999.0,    1.7
2000/12/03 08:30,  999.0,    2.0,    2.1,    3.2,    4.3,  999.0,  999.0,   21.6,  999.0,  999.0,  999.0,   21.3,  999.0,  999.0,  999.0,   21.4,  999.0,    4.3,    4.8,    4.1,  999.0,   -6.7,   20.2,   28.3,  999.0,   15.7,   15.6,   16.6,    1.8,   17.3,    1.5,   18.8,   -0.1,    1.3,  -19.8,    0.9,  -21.0,  -10.5,  -10.9,    0.3,  -20.8,  -20.7,   -1.6,  -21.6,  -41.7,   41.0,   -0.1,  -10.2,   28.2,   28.5,   41.8,   -1.0,    0.9,  -10.5,    0.8,    0.2,   20.9,  -10.4
2000/12/03 08:40,  999.0,    2.0,    1.8,    2.9,    2.2,  999.0,  999.0,  999.0,  999.0,   21.5,   21.8,   21.9,   20.8,  999.0,  999.0,    7.3,   14.9,   24.3,    1.3,    0.1,  999.0,  999.0,    1.2,  999.0,  999.0,   36.2,   38.3,   39.6,   21.3,  999.0,   42.0,   42.3,  999.0,   21.4,    6.0,   -2.3,  -23.7,    5.4,   -1.2,    6.2,   -0.5,   -5.4,    0.1,    3.1,   12.2,  -14.8,   21.7,   21.6,   -8.8,   21.1,    1.3,  -42.2,  -13.2,    0.1,  -31.3,  -41.0,  -21.5,   10.7
2000/12/03 08:50,  999.0,    1.7,    2.2,    1.7,    2.1,  999.0,   21.2,   21.1,   21.6,   21.2,   20.9,   21.0,   20.8,   20.0,    4.1,    9.0,  999.0,   11.3,  999.0,   -7.8,   -9.2,  999.0,  999.0,  999.0,    0.4,    0.9,    0.6,  999.0,    0.6,    0.6,    0.3,    0.5,    0.6,    0.3,    0.5,   15.2,    1.2,   28.7,    0.8,   21.4,   20.7,   10.8,   -4.7,   -6.2,  -19.5,  -17.8,  999.0,    4.2,    9.7,   20.5,   -0.9,   -0.7,   20.9,   20.3,   -0.8,   -0.7,    0.1,   -1.1
2000/12/03 09:00,  999.0,    1.0,    2.9,    2.7,    3.2,    4.9,  999.0,  999.0,   21.1,  999.0,   21.5,  999.0,  999.0,  999.0,  999.0,   10.8,   11.0,   11.8,  999.0,   11.4,   13.7,  999.0,  999.0,  999.0,  999.0,   42.2,   34.3,   38.1,   39.2,   40.8,   40.6,   42.3,   24.1,   32.5,   42.0,   31.4,   31.2,   42.0,   30.8,   41.6,   42.1,   41.9,   41.7,   30.3,   31.3,   31.2,   42.2,   28.1,   14.0,   41.7,   21.2,   20.6,   21.4,    0.0,   41.6,   31.4,   20.4,   14.1
2000/12/03 09:10,  999.0,    1.6,    2.3,    5.0,    4.5,    4.8,    7.6,   21.4,   21.0,  999.0,   21.0,   21.1,  999.0,  999.0,  999.0,    8.8,  999.0,  999.0,  999.0,   -3.6,    0.2,  999.0,  999.0,  999.0,  999.0,   13.3,    1.6,   16.1,   41.2,   25.8,   42.1,   28.9,   23.4,   37.6,   22.0,   42.5,   28.0,   32.0,   -8.4,   20.5,    4.1,    3.8,   30.8,   20.6,   31.1,   20.9,   -0.6,   42.1,  999.0,   41.3,   21.4,   41.3,   20.5,   20.3,  999.0,   20.8,   36.9,   21.1
2000/12/03 09:20,  999.0,    1.4,    1.1,    4.0,    4.8,    7.2,  999.0,   21.4,   21.1,   21.6,  999.0,  999.0,   21.1,   21.4,  999.0,  999.0,   26.0,  999.0,  999.0,  999.0,  999.0,  999.0,  999.0,  999.0,  999.0,   37.4,   39.0,   36.1,   41.6,   41.7,   41.9,   37.3,   32.7,   41.7,   41.7,   41.3,   42.0,   40.8,   41.6,   26.0,   35.5,   41.9,   41.0,   41.3,   36.4,   28.0,   21.4,   41.3,   27.8,   41.8,   33.2,   41.5,   41.2,   41.6,   41.4,   41.1,   41.3,   35.0
2000/12/03 09:30,  999.0,    1.9,    1.2,    9.7,   11.0,    8.2,    9.7,  999.0,   21.2,   20.6,   20.9,   21.2,   21.4,   21.4,   20.9,   22.1,   22.2,   25.0,   22.2,  999.0,  999.0,  999.0,  999.0,   31.3,   32.7,   34.3,   32.0,   36.1,   40.7,   41.9,   41.9,   42.0,   41.8,   41.8,   31.4,   32.8,   42.1,   15.8,   42.3,   33.9,   42.4,   42.2,   42.1,   29.7,   25.3,   21.4,   34.8,   42.1,   42.4,   41.9,   41.9,   38.3,   41.7,  999.0,   31.3,   27.7,   21.2,   13.7
2000/12/03 09:40,  999.0,   21.3,   20.6,   20.6,   20.4,  999.0,  999.0,  999.0,   20.2,   20.8,   21.3,   21.1,   21.1,   21.2,   21.1,   21.9,   22.5,   21.2,   25.0,   26.5,   29.6,   30.4,   31.4,   33.1,   35.0,   36.8,   37.9,   40.0,   41.1,   41.9,   42.0,   41.8,   41.6,   42.1,   41.7,   41.8,   42.0,   42.1,   41.8,   41.7,   41.6,   41.4,   41.3,   41.4,   41.7,   42.1,   41.9,   42.2,   41.8,   41.9,   42.4,   41.9,   42.1,   42.2,   42.5,   42.0,  999.0,   41.5
2000/12/03 09:50,  999.0,   22.0,   22.0,   20.9,   20.6,   20.9,   21.8,   21.5,   21.6,   21.5,   22.1,   21.0,   21.0,   21.2,   22.7,   22.7,   24.4,   26.3,   27.3,   28.6,   30.8,   31.6,   34.7,   35.5,   37.2,   38.7,   41.2,   39.5,   41.7,   41.3,   41.3,   41.8,   41.9,   41.7,   41.7,   41.9,   41.7,   41.6,   42.1,   41.7,   41.7,  999.0,   41.6,   41.9,   41.6,   41.8,   41.7,   42.0,   41.8,   42.3,   41.7,   41.9,   41.2,   41.6,   42.3,   42.2,   41.4,   41.8
2000/12/03 10:00,  999.0,   21.6,  999.0,   21.3,   20.5,   20.3,   19.3,   19.5,   21.2,   20.9,   20.5,   21.4,   21.9,   21.2,   20.9,   23.5,   25.0,   26.6,   28.9,   30.1,   31.5,   33.2,   35.2,   36.5,   38.2,   39.0,   40.1,  999.0,   41.8,   42.0,   41.6,   41.8,   41.9,   41.9,   41.7,   41.5,   41.7,   42.0,  999.0,   41.5,   41.9,   42.1,   41.6,  999.0,   41.8,   42.1,   41.5,   41.9,   41.7,   41.6,   41.8,   41.9,   41.9,   41.7,   41.9,   41.7,   41.6,   40.9
2000/12/03 10:10,  999.0,   22.9,   21.4,  999.0,  999.0,  999.0,   21.7,   21.3,   20.1,   20.9,   21.0,  999.0,   20.8,   21.1,   21.5,   21.2,   20.1,   21.4,   21.7,   21.7,   30.9,   21.8,   23.4,   24.5,   26.1,   31.4,   42.2,   41.7,    2.9,   40.9,   41.8,   33.3,   40.7,   41.6,   26.0,   39.3,   41.9,   38.4,   42.2,   41.9,   42.0,   40.1,   34.0,   41.7,   27.6,    7.4,   32.6,   27.4,   42.0,   41.2,   41.9,   39.6,   42.1,   42.4,   22.2,   41.5,   31.6,   28.6
2000/12/03 10:20,  999.0,   -0.4,    3.7,    0.1,    4.1,    4.8,    3.8,    5.9,    6.4,    6.6,    6.1,    7.1,    8.3,  999.0,  999.0,  999.0,    0.6,   11.3,    0.9,   12.7,   13.2,   13.7,  999.0,   14.7,   15.0,   15.9,   16.4,   17.2,   17.7,   24.5,   31.3,   38.2,   31.7,   30.6,   38.4,   41.8,   28.2,   42.7,   28.5,   29.9,   28.3,   21.4,   21.1,   31.3,   41.5,   35.3,   34.9,   35.0,  999.0,   29.3,   25.0,   40.6,   30.0,   29.7,   38.7,   21.7,   41.5,   41.5
2000/12/03 10:30,  999.0,   -1.4,   -1.3,    0.4,    6.8,    7.9,    4.6,    8.3,    6.1,    4.4,    5.3,    6.4,    7.0,    8.6,   16.8,   14.6,  999.0,   14.0,    6.5,   10.3,    0.3,    0.5,    0.5,    0.5,   10.0,    0.4,   15.2,   10.6,   11.0,    7.1,   16.7,   37.0,   17.5,   21.0,   18.6,   23.1,   19.2,    5.2,   19.5,   23.5,   11.4,   20.6,   22.6,   35.7,   35.4,   26.5,   21.5,   21.3,   21.1,   21.6,   35.6,   40.2,   19.7,   21.9,   31.6,   41.1,   34.8,   32.1
2000/12/03 10:40,  999.0,   -0.1,    1.1,    0.1,    1.8,    3.8,    3.9,    4.3,    2.2,    4.1,    3.7,    4.8,    5.1,    6.4,  999.0,  999.0,  999.0,   22.0,   25.3,   25.7,   27.5,  999.0,   29.4,   30.5,   32.1,  999.0,   35.4,  999.0,   38.2,   39.5,   38.4,   39.3,   41.6,   40.6,   42.0,   41.9,   40.6,   42.0,   41.7,   42.2,   42.4,   42.0,   41.7,  999.0,  999.0,   42.1,   41.8,   41.4,  999.0,  999.0,   42.1,  999.0,   41.4,   42.6,  999.0,  999.0,   41.7,  999.0
2000/12/03 10:50,  999.0,    0.5,    2.7,   -0.5,    0.6,    1.1,    1.4,    5.3,    3.5,    4.7,    4.0,    5.4,    7.2,    5.6,  999.0,  999.0,   21.2,   23.6,   22.4,   24.6,   25.7,   28.4,   26.9,   30.0,   31.4,   31.8,   34.1,   36.6,   36.9,   38.3,   39.7,   41.1,   41.9,   41.7,   41.9,   41.5,   42.2,   42.0,   41.8,   41.7,   41.7,   41.5,   41.8,   42.0,   41.9,   41.8,   41.9,   42.1,  999.0,   42.9,   42.1,   41.8,   42.2,   41.8,   42.1,  999.0,   42.2,   42.3
2000/12/03 11:00,  999.0,   -0.1,    0.3,    0.1,    0.9,    1.0,    1.7,    2.5,    4.5,    5.6,    4.0,    4.4,    8.0,   12.5,    8.0,  999.0,  999.0,   33.8,   31.7,   35.0,   23.8,   24.3,   24.6,   25.1,   17.4,   26.0,   21.5,   19.8,   28.2,   23.5,   42.1,   32.0,   41.9,   41.7,   33.7,   35.0,   35.5,   36.3,   34.4,   29.2,   38.4,   37.6,   39.7,   40.7,   41.4,   41.9,   42.6,   42.2,   42.1,   42.0,   42.0,   41.9,   42.2,   42.3,   42.3,   42.0,   41.9,   42.5
2000/12/03 11:10,  999.0,   -0.4,    0.6,    1.0,    2.6,    2.2,    1.3,    3.9,    5.4,    4.9,    3.5,    3.9,    5.0,    7.4,  999.0,  999.0,  999.0,   26.0,   25.5,   21.4,   21.4,   29.3,   21.5,   21.5,   22.4,   33.8,   21.5,   24.9,   31.3,   31.7,   36.6,   39.2,   41.9,   41.6,   41.6,   41.5,   41.7,   41.9,   41.5,   41.9,   41.9,   41.6,   41.6,   41.8,   41.7,   41.9,   41.5,   41.5,   41.9,   41.8,   41.8,   41.6,   41.7,   42.1,   41.6,   41.8,   41.8,   41.7
2000/12/03 11:20,  999.0,    1.1,    0.9,    0.7,    1.7,    0.8,    1.5,    2.6,    3.0,    4.0,    3.4,    3.6,    5.0,  999.0,  999.0,  999.0,  999.0,  999.0,   26.2,   27.6,   29.0,   29.5,   31.2,   32.6,   33.2,   34.3,   35.6,   36.3,   37.7,   38.8,   40.2,   40.6,   41.7,   42.1,   42.1,   41.8,   41.7,   41.7,   42.2,   42.1,   41.9,   42.0,   41.8,   41.9,   42.2,   42.0,   41.5,   41.8,   41.9,   42.0,   42.1,   42.2,   42.4,   41.6,   41.8,   41.7,   41.9,   41.9
2000/12/03 11:30,  999.0,    2.3,    0.4,    1.7,    1.7,    1.8,    3.0,    2.3,    3.7,    4.8,    4.2,    4.6,    4.7,  999.0,  999.0,  999.0,  999.0,   23.3,   24.0,   24.9,   25.7,   27.7,   29.5,   30.9,   32.7,   34.4,   35.1,   37.8,   37.5,   36.9,   33.6,   35.4,   30.4,   41.7,   31.5,   41.9,   28.6,   32.6,   30.8,   28.4,   42.1,   28.8,   41.9,   33.6,   38.6,   42.2,   42.0,   41.8,   35.3,   36.6,   42.0,   41.9,   41.9,   41.9,   41.6,   41.9,   41.5,   42.0
2000/12/03 11:40,  999.0,    1.4,    2.1,    1.5,    2.5,    1.7,    1.2,    3.2,    4.5,    4.8,    3.8,  999.0,  999.0,  999.0,  999.0,   21.3,   22.0,   21.9,   26.9,   22.1,   28.8,   30.2,   22.2,   16.8,   33.9,   34.9,   37.6,   36.0,   37.8,   34.8,   39.0,   42.0,   41.5,   41.6,   41.9,   42.1,   41.7,   41.5,   41.4,   41.7,   41.6,   41.6,   42.0,   41.7,   41.7,   42.1,   41.9,   41.8,   41.5,   41.7,   42.0,   41.7,   41.5,   41.9,   41.9,   41.5,   41.4,   41.8
2000/12/03 11:50,  999.0,    0.4,  999.0,  999.0,    2.5,    4.8,    7.4,    7.2,    7.3,    5.5,    2.2,    3.3,    5.4,    5.7,   21.1,  999.0,   20.9,  999.0,   20.4,   20.9,   19.8,   27.0,   22.7,   22.8,    6.3,  999.0,   18.2,   17.4,   24.5,   25.5,   24.4,   19.6,   23.1,   41.6,   31.7,   32.9,   31.5,   39.3,   42.0,   36.2,   42.1,   31.6,   11.9,   31.0,   34.1,   38.8,   35.1,   32.2,   42.3,   41.9,   40.1,   33.9,   24.3,   42.4,   42.0,   41.8,   41.7,   42.3
2000/12/03 12:00,  999.0,    2.0,    1.3,    1.6,    2.0,    1.3,    3.7,    6.2,    7.6,    9.4,   11.4,    8.8,  999.0,    7.7,  999.0,   16.9,   13.5,   17.5,   11.6,   15.3,   14.9,   13.2,   12.2,   11.1,    8.3,   10.3,   19.9,   21.2,   32.1,   35.3,   36.1,   41.7,   41.9,   41.2,   41.6,  999.0,   41.7,  999.0,   42.4,   -0.1,   -0.1,   -0.3,   -0.1,   14.3,   -0.1,   13.8,   14.0,   13.9,   -0.5,   14.1,   13.8,   13.9,   14.3,   14.2,   13.8,   13.9,   14.2,   14.1
2000/12/03 12:10,  999.0,    0.0,    0.4,    1.4,    0.8,    1.6,    1.2,    3.1,    3.9,    6.5,    7.6,    7.9,  999.0,   22.1,   21.6,   20.6,   19.5,   18.3,   16.2,   16.3,   13.3,   11.9,   12.6,   11.4,   12.5,    9.2,    8.7,  999.0,  999.0,  999.0,  999.0,  999.0,  999.0,  999.0,  999.0,  999.0,  999.0,  999.0,  999.0,  -39.4,  -40.2,  -40.4,  -42.1,  -41.1,  -41.1,  -41.4,  -41.5,  -42.0,  -41.8,  -41.8,  -41.8,  -41.9,  -41.8,  -41.9,  -41.6,  -42.0,  -42.1,  -41.9
2000/12/03 12:20,  999.0,    0.2,    0.1,    0.2,    0.1,    0.8,    0.5,    6.4,    7.3,    7.3,  999.0,  999.0,   21.1,   21.6,   20.1,   20.2,   17.5,   16.3,   14.6,   12.3,   10.5,    8.6,    3.8,    5.8,    4.2,    3.3,    0.7,    0.4,  999.0,  999.0,  999.0,  999.0,  999.0,  999.0,  999.0,  999.0,  999.0,  999.0,  999.0,  999.0,  -41.4,  -42.0,  -41.8,  -41.9,  -42.1,  -41.8,  -42.1,  -42.1,  -41.6,  -41.7,  -41.9,  -41.9,  -41.7,  -42.2,  -41.8,  -42.0,  -41.8,  -41.9
2000/12/03 12:30,  999.0,   -0.0,    0.5,    0.2,    0.4,    0.1,    0.1,    1.6,    6.6,    8.0,    6.5,  999.0,   19.8,   20.4,   19.3,   18.3,   16.3,   14.9,   12.2,   12.0,   10.3,    8.6,    7.0,  999.0,    6.5,  999.0,  999.0,  999.0,  999.0,  999.0,  999.0,  999.0,  999.0,  999.0,  999.0,  999.0,  999.0,  999.0,  999.0,  999.0,  999.0,  -42.4,  -41.9,  -42.1,  -41.8,  -41.7,  -41.7,  -41.9,  -42.1,  -42.0,  -42.1,  -41.7,  -41.7,  -41.8,  -42.0,  -41.6,  -41.3,  -41.7
2000/12/03 12:40,  999.0,    0.7,    0.1,    0.3,    0.4,    1.1,    0.8,    2.2,    3.8,    4.7,    7.0,  999.0,  999.0,  999.0,   21.3,  999.0,   20.1,   16.7,   14.1,   10.5,    7.1,    4.5,    1.9,    1.1,    1.3,    0.8,    0.8,    0.9,    0.8,    0.5,  999.0,  999.0,  999.0,  999.0,  999.0,  999.0,  999.0,  999.0,  999.0,  -42.0,  -41.5,  -41.8,  -27.6,  -41.3,  -34.6,  -34.4,  -41.9,  -31.2,  -34.6,  -31.2,  -31.1,  -41.7,  -41.9,  -41.3,  -41.6,  -20.6,  -20.7,  -31.4
2000/12/03 12:50,  999.0,    1.0,    0.8,    0.7,    2.0,    1.8,    0.9,    3.2,    6.1,    6.9,    7.0,    4.6,  999.0,  999.0,   15.9,   14.3,   14.1,   12.0,    8.4,    6.4,    4.5,    2.5,    0.8,    0.8,    0.6,    0.7,    1.0,    0.8,    0.5,    0.9,  999.0,  999.0,  999.0,  999.0,  999.0,  999.0,  999.0,  999.0,  999.0,  -41.8,  -21.0,  -27.7,  -42.0,  -35.2,  -41.7,  -34.3,  -27.6,  -27.4,  -41.7,  -34.8,  -34.9,  -42.0,  -41.7,  -31.5,  -31.0,  -27.8,  -42.1,  -41.7
2000/12/03 13:00,  999.0,  999.0,    2.1,    1.2,    0.5,    0.8,    1.3,    2.0,    4.3,    8.6,    7.5,    6.6,    4.1,   19.0,   16.5,   17.3,   11.8,   15.2,   13.0,    7.3,   10.3,    7.0,    8.1,    0.7,    0.8,    0.7,    0.6,    0.6,    0.6,  999.0,  999.0,  999.0,  999.0,  999.0,  999.0,  999.0,  999.0,  999.0,  -40.3,  999.0,  -41.6,  999.0,  -41.6,  -41.4,  -41.6,  -34.5,  -20.3,  -27.4,  -20.7,  -27.6,  -27.6,  -41.6,  999.0,  -27.4,  -41.5,  -27.6,  -20.6,  -20.7
2000/12/03 13:10,  999.0,    0.4,    1.0,    2.1,   -0.3,    1.3,    0.1,    2.6,    4.7,    6.0,    5.3,    6.1,    5.4,  999.0,  999.0,  999.0,   14.5,   12.0,    9.2,  999.0,  999.0,  999.0,  999.0,  999.0,    1.1,    0.7,  999.0,  999.0,  999.0,  999.0,  999.0,  999.0,  999.0,  999.0,  999.0,  999.0,  999.0,  999.0,  -41.4,  -42.4,  -41.7,  -41.7,  -40.9,  -41.9,  -42.0,  -41.8,  -41.6,  -42.0,  -41.6,  -41.6,  -41.7,  -41.9,  -41.5,  -41.8,  -41.9,  -41.5,  -41.8,  -42.0
2000/12/03 13:20,  999.0,    0.3,    0.8,    1.0,    1.9,    3.5,    2.3,    4.0,    4.6,    3.8,    3.7,    1.0,    2.7,  999.0,  999.0,  999.0,    5.1,  999.0,  999.0,  999.0,  999.0,  999.0,  999.0,  999.0,  999.0,  999.0,  999.0,  999.0,  999.0,  999.0,  999.0,  -41.5,  999.0,  -41.8,  999.0,  -42.2,  -42.0,  -41.8,  -41.7,  -41.9,  -41.6,  -42.0,  -41.7,  -41.8,  -41.6,  -41.8,  -41.6,  -42.0,  -41.6,  -41.6,  -42.1,  -42.3,  -41.5,  -41.5,  -41.9,  -41.7,  -41.8,  -41.5
2000/12/03 13:30,  999.0,    0.1,    0.5,    2.4,    4.1,    3.0,    2.2,    2.0,    1.5,    2.4,    1.4,    0.9,    1.5,  999.0,  999.0,    0.1,    2.1,    0.9,  999.0,  999.0,  999.0,  999.0,  999.0,  999.0,  999.0,  999.0,  999.0,  -41.7,  -41.5,  -41.7,  -42.2,  -41.7,  -41.7,  -41.6,  -41.8,  -41.5,  -41.9,  -41.8,  -41.6,  -42.1,  -42.1,  -41.6,  -41.7,  -42.1,  -42.3,  -42.0,  -42.1,  -41.5,  -41.6,  -41.9,  999.0,  -41.8,  -42.0,  -42.1,  -42.2,  -42.0,  -41.6,  -42.1
2000/12/03 13:40,  999.0,   -0.1,    0.2,    1.4,    4.2,    2.1,    0.9,    1.3,    1.9,    3.1,    3.3,    4.3,    3.3,    2.4,  999.0,  999.0,    3.0,    3.1,   17.5,   14.8,   12.5,  999.0,    7.7,    7.8,  999.0,    0.7,  999.0,  999.0,  -40.4,  -41.9,  -41.9,  -41.6,  -41.4,  -41.7,  -41.9,  -41.8,  -41.7,  -41.4,  -41.4,  -41.9,  -41.5,  -41.2,  -34.8,  -20.4,  -27.6,  -34.6,  -27.8,  -13.8,  -28.0,  -31.4,  -20.5,  -42.4,  -27.6,  -27.7,  -20.6,  -20.6,  -41.5,  -31.4
2000/12/03 13:50,  999.0,   -0.1,   -0.1,    2.0,    4.1,    3.5,    0.9,    0.6,    1.6,    1.4,    1.8,    2.1,  999.0,    5.5,  999.0,  999.0,    4.5,  999.0,  999.0,  999.0,   11.4,    9.8,    7.7,  999.0,  999.0,  999.0,  999.0,  999.0,  999.0,  999.0,  999.0,  999.0,  999.0,  999.0,  999.0,  -41.7,  -42.2,  -41.6,  -41.8,  -41.9,  -42.6,  -42.2,  -42.2,  -42.2,  999.0,  -41.9,  -41.9,  999.0,  -41.9,  -41.9,  -42.1,  -42.2,  -42.6,  -41.7,  -41.8,  -42.1,  -41.8,  -41.6
2000/12/03 14:00,  999.0,    0.5,    0.6,    2.5,    2.4,    2.7,    2.3,    3.6,    4.6,    4.0,    1.7,    1.3,    1.0,    0.5,    1.8,    2.4,    2.7,    0.6,  999.0,  999.0,  999.0,  999.0,  999.0,    0.8,  999.0,    0.7,  -41.6,  -41.9,  -41.8,  -41.6,  -41.7,  -41.9,  -42.2,  -42.0,  -42.0,  999.0,  -42.1,  -41.6,  -41.6,  -41.4,  -41.9,  -42.1,  -41.6,  -34.6,  -41.5,  -27.6,  -27.4,  -31.3,  -34.7,  -41.7,  -34.6,  -41.8,  -41.7,  -20.5,  -20.8,  -31.3,  -30.9,  -20.8
2000/12/03 14:10,  999.0,    0.6,    0.7,    1.5,    2.6,    2.7,    1.9,    2.9,    3.2,    3.4,    1.6,    1.4,    1.8,    1.0,    2.3,    3.5,  999.0,  999.0,   12.1,  999.0,    6.4,    3.8,    0.5,  999.0,  -41.7,    0.3,  -41.7,  -41.8,  -42.3,  -41.7,  -41.9,  -42.1,  -41.7,  -41.6,  -41.9,  -41.7,  -41.9,  -41.6,  -41.8,  -41.8,  -41.6,  -41.7,  -42.1,  -41.7,  -41.8,  -42.0,  -42.0,  -41.8,  -41.6,  -41.4,  -42.3,  -42.0,  -41.6,  -41.9,  -41.8,  -41.4,  -41.2,  -42.1
2000/12/03 14:20,  999.0,    0.8,   -0.0,    0.4,    1.6,    3.1,    3.9,    6.1,    5.0,    4.4,    1.1,    0.7,    0.7,    1.0,    2.2,  999.0,  999.0,  999.0,  999.0,  999.0,  999.0,  999.0,    9.9,    7.6,  -41.9,  -26.4,  999.0,  -42.0,  -42.1,  999.0,  -42.0,  -42.0,  -41.9,  -41.8,  -41.7,  -42.0,  -41.6,  -42.1,  -41.8,  -41.9,  -41.8,  -42.1,  -41.6,  -42.3,  -41.7,  -41.7,  -41.7,  -41.7,  -36.0,  -41.5,  -41.4,  -41.8,  -41.4,  -41.8,  -31.0,  -34.7,  -31.0,  -30.9
2000/12/03 14:30,  999.0,    0.2,    0.2,    1.2,    1.8,    3.4,    4.3,    5.2,    5.2,    4.6,    3.3,    0.7,    2.8,    2.9,    2.3,  999.0,  999.0,   -0.3,  999.0,  999.0,  999.0,  999.0,    1.2,  -36.0,  -39.0,  -41.8,  -41.5,  -41.9,  -41.8,  -41.9,  -41.9,  -41.6,  -42.1,  -42.0,  -41.8,  -41.7,  -41.7,  -41.5,  -41.8,  -41.6,  -41.9,  -31.5,  -27.7,  -42.2,  -42.1,  -20.7,  -31.4,  -31.4,  -27.7,  -21.1,  -41.9,  -41.9,  -41.8,  -42.0,  -31.0,  -35.0,  -41.6,  -41.4
2000/12/03 14:40,  999.0,    2.6,    1.2,    0.7,    1.2,    1.3,    1.4,    2.3,    3.0,    4.2,    3.4,    8.4,  999.0,    4.4,    0.1,  999.0,  999.0,   -4.6,  999.0,  999.0,    4.7,    3.6,    1.8,  999.0,  999.0,  999.0,    0.3,  999.0,    0.8,  999.0,  999.0,  999.0,  999.0,  999.0,  999.0,  -41.1,  -42.3,    0.4,  -42.1,  999.0,  -21.0,    0.9,    0.9,    0.7,    0.1,    0.7,  -13.7,  -10.1,  -20.7,   -9.9,  -20.6,  -41.7,    0.7,    0.7,  -13.2,  -10.1,   -9.8,    0.3
2000/12/03 14:50,  999.0,   -0.2,   -0.1,   -0.1,    1.0,    1.1,    0.6,    4.2,    4.1,    4.8,    3.3,    4.5,    2.7,    7.9,  999.0,  999.0,  999.0,   -1.5,  999.0,  999.0,    6.5,    0.3,    2.4,  999.0,    0.5,  999.0,    0.4,    0.8,    1.0,    1.0,    0.7,  999.0,  999.0,  999.0,    0.7,  999.0,  999.0,    0.6,    0.7,    0.9,    0.9,    1.1,    0.4,    0.6,    0.7,    0.4,    0.7,    0.3,    1.5,    0.8,    0.8,    0.6,    0.5,    0.5,    0.4,    0.5,    0.8,    0.5
2000/12/03 15:00,  999.0,    0.0,   -0.1,    0.3,    0.2,   -0.2,    0.1,   -0.1,    1.7,    6.9,    3.5,    1.1,   21.4,   21.2,  999.0,  999.0,   17.9,   15.9,   14.2,  999.0,    8.5,    6.3,    4.3,    2.6,    0.6,    0.9,    0.6,    0.9,    0.7,    0.8,    0.8,    0.8,    0.8,    0.6,    0.1,    0.7,    0.7,    0.6,    0.5,    0.7,    0.6,    1.1,    0.7,    0.5,    0.5,    0.7,    1.0,    0.8,    1.0,    1.0,    0.8,    0.9,    0.7,    0.8,    0.7,    1.1,    0.6,    0.7
2000/12/03 15:10,  999.0,    0.3,    0.3,    2.6,  999.0,    1.6,    4.5,    4.9,    3.9,    4.4,    3.6,  999.0,  999.0,  999.0,  999.0,   18.8,   16.6,   14.5,   13.9,   12.1,   10.0,    9.0,    5.5,    4.5,    3.7,    1.2,    0.7,    0.7,    0.7,    0.8,    0.5,    0.6,    0.5,    0.4,    1.1,    0.6,    0.6,    0.7,    0.5,    0.4,    0.3,   -9.9,    1.1,  -13.5,  -13.4,   -9.7,    0.4,    0.8,    0.7,    0.9,    1.0,    0.8,    0.7,  999.0,    0.8,    1.6,    0.5,    1.0
2000/12/03 15:20,  999.0,   -0.1,   -0.0,   -0.0,    1.4,   -0.1,   -0.1,    0.5,    1.7,    3.8,    3.3,    1.2,  999.0,  999.0,  999.0,  999.0,  999.0,  999.0,   10.7,    8.4,    5.3,    3.9,    2.6,    1.3,    1.4,    6.1,   11.0,    0.8,    7.0,    1.7,    0.8,    0.8,   11.6,    8.7,    7.6,    2.7,    0.4,    0.9,    0.5,    0.6,    0.5,    0.7,    0.6,    0.9,    0.9,    0.7,  999.0,    0.8,    0.5,    0.7,    0.5,    0.8,    0.8,    0.8,    1.1,    0.5,    0.6,    0.7
2000/12/03 15:30,  999.0,    0.1,    0.0,  999.0,  999.0,   -0.0,   -0.1,    0.0,    1.6,    3.8,    0.9,    0.3,  999.0,  999.0,  999.0,  999.0,  999.0,   16.8,   12.7,    8.5,    6.6,    5.5,    9.9,    3.4,    3.4,    8.9,    2.5,    1.9,    0.1,    3.8,    3.1,   11.2,   20.7,   19.1,   23.2,    6.6,    0.8,    1.0,    0.8,    0.7,    0.8,    0.6,    0.5,    1.1,    5.5,    6.2,    1.0,   10.8,   16.6,   24.9,   14.4,   22.9,   18.5,    8.2,    7.2,    4.4,    3.3,    3.3
2000/12/03 15:40,  999.0,    0.2,    0.7,    0.1,    0.5,    1.9,    0.1,    0.1,    1.4,   -3.0,    0.5,  999.0,    0.5,  999.0,  999.0,  999.0,  999.0,   -6.7,  999.0,  999.0,  999.0,  999.0,   10.9,  999.0,    1.0,   10.7,  999.0,    1.3,    1.0,    0.4,    0.8,   17.8,   13.0,    7.1,    3.8,    0.9,    0.9,    0.7,    0.8,    0.8,    2.5,  999.0,    8.3,    0.5,    7.3,   18.3,    0.6,   11.9,   26.6,   29.5,   11.4,   18.5,   38.8,   21.0,   21.0,   14.8,    0.8,   14.5
2000/12/03 15:50,  999.0,    0.1,   -0.9,   -0.6,    1.4,  999.0,    1.1,   -0.1,   -0.0,    0.5,    0.8,    1.2,  999.0,  999.0,  999.0,  999.0,  999.0,  999.0,  999.0,  999.0,  999.0,  999.0,    0.4,    0.5,  999.0,    0.7,    0.7,    1.1,    1.0,    0.7,    0.8,    1.1,    0.7,  999.0,    0.5,    0.9,    0.6,    0.8,    1.3,    0.7,    1.0,    0.9,    0.9,    1.2,    1.0,    1.0,    0.7,    0.4,    0.8,    1.0,    0.7,    1.1,    0.9,    0.8,    0.9,    1.2,    1.1,    1.0
2000/12/03 16:00,  999.0,    0.6,  999.0,    3.7,    0.2,    0.7,    1.1,    1.1,    1.2,    2.1,    0.2,    0.1,   -2.6,   -4.9,  999.0,  999.0,   14.2,  999.0,  999.0,  999.0,  999.0,    2.1,    1.2,    7.4,    1.1,   13.7,    0.6,    6.9,    7.4,    0.9,    0.7,    0.8,    1.1,    0.5,    0.6,    0.8,    0.6,    0.7,    0.8,    0.8,    1.0,    0.8,    0.4,    0.3,    0.7,    0.7,    0.4,    0.7,    0.6,    0.7,    0.5,    4.3,    1.4,    1.5,    7.4,    7.5,    7.6,    0.8
2000/12/03 16:10,  999.0,    1.8,    0.1,    2.8,    3.7,    2.6,    0.7,    2.3,    0.7,    1.6,    0.9,    1.1,  999.0,  999.0,  999.0,  999.0,   -6.0,   -5.4,  999.0,  999.0,  999.0,    0.9,    1.7,    0.6,    1.0,    0.7,    0.4,    1.1,    0.5,    0.8,    0.9,    0.2,    0.7,    0.7,    0.9,    1.3,    0.6,    0.6,    0.6,    0.7,    0.5,    0.8,    0.1,    0.6,    0.9,    1.2,    0.2,    0.7,    0.5,  999.0,    0.6,    1.0,    0.9,    0.5,    1.0,    1.0,    0.8,    0.9
2000/12/03 16:20,  999.0,  999.0,    0.3,    5.2,    2.5,    2.3,    1.2,    2.0,    2.2,    2.4,    3.3,    2.1,    1.5,  999.0,    0.8,    2.1,   -0.9,  999.0,  999.0,  999.0,   21.0,   15.4,   14.2,   13.2,   12.2,   15.4,    0.5,   41.6,   11.1,   10.9,    1.7,    0.7,   14.6,    5.0,    1.3,    0.7,    0.6,    1.2,    0.8,    0.7,   -6.5,    0.9,  -20.2,    0.8,  -20.5,    0.5,    0.2,  -13.4,   -6.2,    0.9,   -9.7,    5.5,   -7.5,  999.0,   -6.7,  -13.2,    0.7,   -6.8
2000/12/03 16:30,  999.0,    2.1,    1.6,    0.2,    1.0,    1.6,    2.1,    1.1,    1.4,    1.5,    1.3,    0.6,    0.6,  999.0,  999.0,    0.5,    1.4,    1.8,  999.0,  999.0,  999.0,   15.0,    7.6,    5.2,    4.3,    2.5,    2.2,    0.6,    0.8,    0.7,    0.6,    0.8,    0.7,    0.5,    0.8,    0.5,    0.6,    0.6,    0.7,    0.9,    1.1,    0.5,    0.5,    0.7,    0.9,    0.6,    0.8,    0.4,    0.6,    1.0,    0.9,    0.6,    0.7,    1.2,    0.9,    0.9,    1.1,    0.7
2000/12/03 16:40,  999.0,    0.6,    0.5,    0.1,    1.0,    0.6,    0.6,    0.9,    0.7,    0.5,    0.6,    1.4,    2.2,    2.1,  999.0,  999.0,    3.4,    4.0,    5.5,  999.0,  999.0,   17.9,   15.8,   16.7,   13.2,   11.9,   10.6,    9.5,   14.5,    8.4,   13.8,    0.3,    2.9,    0.6,    0.8,    1.0,    1.0,    0.7,   11.6,    9.1,    4.3,    5.9,    0.8,    0.6,    0.4,    0.5,    0.7,    1.0,    0.8,    1.2,    0.7,    0.8,    0.7,    0.8,    0.6,    0.5,    0.1,    0.6
2000/12/03 16:50,  999.0,   -0.1,    0.5,    1.4,    0.7,    2.8,    2.1,    1.0,    1.1,    1.2,   -0.4,   -0.3,  999.0,   -3.2,  999.0,  999.0,   -2.5,   -2.0,   -9.2,  999.0,  999.0,    2.3,    0.8,  999.0,  999.0,   21.1,   21.5,    0.4,    0.6,    0.6,  -41.6,  -20.8,   21.4,  -20.2,    0.2,    0.3,    0.4,  999.0,  999.0,    0.3,  999.0,  -41.8,  -42.0,  -42.0,  -41.9,  999.0,  -41.7,  -41.9,  999.0,  -42.1,  -35.5,  -38.3,  -41.9,  -40.0,  -41.3,  -41.5,  -42.2,  -27.3
2000/12/03 17:00,  999.0,    1.2,    0.6,    0.9,    0.6,    3.4,    3.9,    1.0,    1.0,    2.6,    1.6,    1.1,  999.0,  999.0,  999.0,  999.0,    7.3,   10.1,   13.1,  999.0,  999.0,   20.5,   19.9,   13.0,  999.0,   21.0,  999.0,   29.2,   22.4,   -6.3,  999.0,   13.4,   16.9,  -30.3,  -31.5,    4.9,   10.0,  -32.7,  -33.7,   42.3,   13.8,  999.0,  999.0,   -4.0,  -38.4,    3.6,    3.2,  -40.3,  999.0,   -9.2,  -41.6,  -23.0,  -37.5,  -36.5,  -24.9,  -25.9,  -34.0,  -34.7
2000/12/03 17:10,  999.0,    1.4,    1.2,    0.9,    0.5,    1.7,    3.8,    4.0,    1.4,    3.0,    2.4,    0.1,    3.8,    3.8,  999.0,  999.0,  999.0,    2.4,    3.2,  999.0,  999.0,  999.0,  999.0,  999.0,    0.6,    0.4,  999.0,  999.0,  -41.9,  -20.6,  -28.0,  -27.9,  -42.3,  -42.3,  -27.7,  -27.6,  -42.7,  -42.7,  -42.2,  -20.4,  -28.0,  -42.2,  -42.2,  -43.0,  -42.2,  -42.1,  -41.8,  999.0,  -42.3,  -42.0,  -41.8,  -42.0,  -42.2,  -41.9,  -42.0,  -41.6,  -41.9,  -42.1
2000/12/03 17:20,  999.0,    2.4,    0.5,    1.6,    2.3,    1.4,    0.2,    0.9,    2.2,    4.8,    1.0,    1.9,    2.6,    3.6,    1.8,    0.7,  999.0,    2.1,   -1.2,  999.0,  999.0,  999.0,  999.0,  999.0,    8.1,  999.0,    5.3,  999.0,  -18.1,  -19.7,  -27.5,  -41.9,  -34.8,  -27.8,  -42.3,  -42.0,  -27.6,  -34.6,  -42.1,  -41.9,  -41.7,  -42.0,  -42.1,  -27.7,  -42.0,  -41.8,  -41.9,  -42.2,  -41.7,  -34.7,  -21.0,  -28.3,  -42.6,  -42.1,  -27.6,  -42.0,  -42.5,  -20.7
2000/12/03 17:30,  999.0,    1.0,    1.0,    0.4,    1.4,    0.1,    1.7,    1.3,    1.3,    1.7,    1.4,    1.9,    1.9,    2.7,    1.8,    1.2,  999.0,   -1.6,  999.0,  999.0,  999.0,  999.0,    7.9,    6.5,  999.0,    2.3,    0.8,  -30.1,  -31.2,  -42.3,    0.6,  -42.3,  -34.8,  -41.3,  -41.6,  -41.5,  -42.3,  -41.9,  -41.8,  -42.0,  -41.9,  999.0,  -42.0,  -41.6,  -42.0,  -41.5,  -41.8,  -41.8,  -41.8,  -41.7,  -42.0,  -41.6,  -41.7,  -41.7,  -41.8,  -41.8,  -41.7,  -41.6
2000/12/03 17:40,  999.0,    0.8,    0.1,    0.2,    0.1,    0.3,    2.7,    2.6,    1.8,    1.8,    1.3,    1.8,    2.2,    2.3,    1.2,  999.0,    0.4,   -0.4,  999.0,  999.0,  999.0,  999.0,  999.0,  999.0,  999.0,  999.0,  999.0,  -23.9,  -40.9,  -41.6,  -16.4,  -41.9,  -41.6,  -25.7,  -41.6,  -18.3,  -42.2,  -41.6,  -42.4,  -42.0,  -27.8,  -20.3,  -41.9,  -34.7,  -20.5,  -27.5,  -27.5,  -41.9,  -27.9,  -27.7,  -41.9,  -35.0,    1.1,  -41.7,  -41.4,  -41.5,  -34.8,  -28.3
2000/12/03 17:50,  999.0,   -0.0,    0.2,   -0.3,   -0.1,    1.8,    5.4,    4.4,    2.6,  999.0,   -0.1,    0.1,    1.0,    1.4,    2.6,  999.0,  999.0,    1.7,    3.1,  999.0,  999.0,  999.0,  999.0,  999.0,  999.0,   10.5,  999.0,  -33.9,  999.0,  -28.3,  -40.1,  -39.8,    2.3,  -41.4,  -27.6,  -31.0,  -31.2,    0.8,  -20.5,  -41.8,  -41.4,  -30.8,    1.1,  -27.6,  -20.7,  -27.8,    0.5,  -41.9,  -13.5,  -41.7,  -20.2,   -9.7,  -10.0,  -34.4,  -41.9,   -9.8,  -31.1,  -28.2
2000/12/03 18:00,  999.0,    1.6,    1.0,  999.0,  999.0,  999.0,  999.0,    6.1,    3.4,    0.2,  999.0,  999.0,    1.1,    3.5,    2.7,  999.0,  999.0,    3.8,    4.8,  999.0,  999.0,  999.0,    8.5,   11.4,  999.0,  999.0,  999.0,  999.0,  999.0,  999.0,  999.0,  -20.5,  999.0,   -0.8,  -16.0,  999.0,  -14.6,  -34.0,  999.0,    0.7,  -41.8,  -21.3,  999.0,   41.9,   17.4,  999.0,   23.2,   -6.0,  -14.4,    1.3,  999.0,  999.0,  999.0,  999.0,  999.0,    0.8,  999.0,  999.0
2000/12/03 18:10,  999.0,    5.9,    1.0,    0.6,   -1.8,    2.5,    1.7,    1.6,    2.0,   -0.1,   -1.4,   -0.5,   -6.6,   -4.8,  999.0,  999.0,   -0.8,  999.0,  999.0,  999.0,  999.0,  999.0,   -6.0,   -8.9,  -14.9,  999.0,  999.0,  999.0,  999.0,  999.0,  999.0,  999.0,  999.0,  999.0,  999.0,  999.0,  999.0,  999.0,  999.0,  999.0,  999.0,  999.0,  999.0,  999.0,  999.0,  999.0,  999.0,  999.0,  999.0,  999.0,  999.0,  999.0,  999.0,  999.0,  999.0,  999.0,  999.0,  999.0
2000/12/03 18:20,  999.0,   -0.7,    0.9,   -0.6,   11.3,  999.0,    2.9,    3.3,    0.5,   -2.2,   -1.6,   -5.1,   -2.4,  999.0,  999.0,  999.0,  999.0,  999.0,  999.0,   -1.9,  999.0,  999.0,   -1.6,   -5.2,  -10.7,  999.0,  999.0,  999.0,  999.0,  999.0,  999.0,  999.0,  999.0,  999.0,  999.0,  999.0,  999.0,  999.0,  999.0,  999.0,  999.0,  999.0,  999.0,  999.0,  999.0,  999.0,  999.0,  999.0,  999.0,  999.0,  999.0,  999.0,  999.0,  999.0,  999.0,  999.0,  999.0,  999.0
2000/12/03 18:30,  999.0,    3.2,    1.3,    1.5,   -0.0,    1.1,   -2.6,   -0.3,    0.7,   -2.5,   -3.1,   -3.5,   -3.7,   -1.7,   -2.0,   -2.4,   -0.4,    0.5,    3.0,   -0.7,  999.0,   -1.0,    1.1,   -0.9,   -6.2,  999.0,  999.0,  999.0,  999.0,  999.0,  999.0,  999.0,  999.0,  999.0,  999.0,  999.0,  999.0,  999.0,  999.0,  999.0,  999.0,  999.0,  999.0,  999.0,  999.0,  999.0,  999.0,  999.0,  999.0,  999.0,  999.0,  999.0,  999.0,  999.0,  999.0,  999.0,  999.0,  999.0
2000/12/03 18:40,  999.0,    2.9,    2.5,    4.1,    1.0,   -2.2,   -1.9,   -1.9,   -0.9,   -1.0,   -3.6,   -5.4,   -4.3,   -1.9,   -3.3,   -1.8,   -1.0,   -1.3,   -2.5,   -2.4,   -1.6,   -1.0,   -0.9,  999.0,  999.0,  999.0,  999.0,  999.0,  999.0,  999.0,  999.0,  999.0,  999.0,  999.0,  999.0,  999.0,  999.0,  999.0,  999.0,  999.0,  999.0,  999.0,  999.0,  999.0,  999.0,  999.0,  999.0,  999.0,  999.0,  999.0,  999.0,  999.0,  999.0,  999.0,  999.0,  999.0,  999.0,  999.0
2000/12/03 18:50,  999.0,    2.6,    1.4,   -2.4,    0.3,   -2.0,   -0.0,    1.7,   -3.0,   -2.9,   -0.5,   -3.1,   -1.7,   -2.9,   -2.5,   -1.6,   -1.5,   -2.1,   -2.9,    3.3,  999.0,    1.9,   -0.5,  999.0,  999.0,  999.0,  999.0,  999.0,  999.0,  999.0,  999.0,  999.0,  999.0,  999.0,  999.0,  999.0,  999.0,  999.0,  999.0,  999.0,  999.0,  999.0,  999.0,  999.0,  999.0,  999.0,  999.0,  999.0,  999.0,  999.0,  999.0,  999.0,  999.0,  999.0,  999.0,  999.0,  999.0,  999.0
2000/12/03 19:00,  999.0,  999.0,    8.8,    0.7,    2.3,    2.2,    1.2,    1.5,   -0.4,   -1.4,   -1.1,   -5.8,   -6.4,   -1.6,    0.1,   -1.4,   -0.9,   -2.5,   -2.7,  999.0,   -0.6,    2.4,    1.0,  999.0,  999.0,  999.0,  999.0,  999.0,  999.0,  999.0,  999.0,  999.0,  999.0,  999.0,  999.0,  999.0,  999.0,  999.0,  999.0,  999.0,  999.0,  999.0,  999.0,  999.0,  999.0,  999.0,  999.0,  999.0,  999.0,  999.0,  999.0,  999.0,  999.0,  999.0,  999.0,  999.0,  999.0,  999.0
2000/12/03 19:10,  999.0,    6.6,    1.1,   -0.4,   -1.3,   -1.4,  999.0,    0.0,   -1.7,   -1.7,   -2.9,   -9.3,   -6.2,   -6.9,   -3.4,   -5.5,   -5.9,   -5.5,  999.0,   -1.7,  999.0,  999.0,  999.0,  999.0,   -6.7,  999.0,  999.0,  999.0,  999.0,  999.0,  999.0,  999.0,  999.0,  999.0,  999.0,  999.0,  999.0,  999.0,  999.0,  999.0,  999.0,  999.0,  999.0,  999.0,  999.0,  999.0,  999.0,  999.0,  999.0,  999.0,  999.0,  999.0,  999.0,  999.0,  999.0,  999.0,  999.0,  999.0
2000/12/03 19:20,  999.0,    4.7,    1.0,  999.0,   -6.0,   -1.5,   -0.5,   -2.1,   -2.2,   -4.8,   -7.3,   -1.8,   -4.2,   -4.0,    1.0,    0.4,   -6.8,   -0.6,    1.1,  999.0,  999.0,  999.0,  999.0,   -2.1,   -2.5,  999.0,  999.0,  999.0,  999.0,  999.0,  999.0,  999.0,  999.0,  999.0,  999.0,  999.0,  999.0,  999.0,  999.0,  999.0,  999.0,  999.0,  999.0,  999.0,  999.0,  -18.1,  999.0,  999.0,  999.0,  999.0,  999.0,  999.0,  999.0,  999.0,  999.0,  999.0,  999.0,  999.0
2000/12/03 19:30,  999.0,    4.7,  999.0,    0.1,    1.6,   -4.7,   -6.1,   -4.2,  999.0,    0.0,   -1.1,   -3.1,   -4.7,  -11.8,   -2.3,   -0.9,    1.6,    1.2,    3.7,  999.0,  999.0,  999.0,  999.0,  999.0,  999.0,  999.0,  999.0,  999.0,  999.0,  999.0,  999.0,  999.0,  999.0,  999.0,  999.0,  999.0,  999.0,  999.0,  999.0,  999.0,  999.0,  999.0,  999.0,  999.0,  999.0,  999.0,  999.0,  999.0,  999.0,  999.0,  999.0,  999.0,  999.0,  999.0,  999.0,  999.0,  999.0,  999.0
2000/12/03 19:40,  999.0,  999.0,  999.0,   -1.4,    0.6,    0.2,    3.2,  999.0,  999.0,  999.0,  999.0,    2.2,    3.6,  999.0,    3.4,    9.2,   -2.1,    3.0,    2.9,    4.4,    4.1,  999.0,  999.0,  999.0,  999.0,  999.0,  999.0,  999.0,  999.0,  999.0,  999.0,  999.0,  999.0,  999.0,  999.0,  999.0,  999.0,  999.0,  999.0,  999.0,  999.0,  999.0,  999.0,  999.0,  999.0,  999.0,  999.0,  999.0,  999.0,  999.0,  999.0,  999.0,  999.0,  999.0,  999.0,  999.0,  999.0,  999.0
2000/12/03 19:50,  999.0,    1.0,    1.1,    1.1,   -1.2,  999.0,   -1.9,   -1.4,   -0.2,   -0.8,  999.0,  999.0,    4.8,    6.2,    3.8,    1.0,   -2.3,  999.0,   -0.3,    3.1,    3.4,  999.0,  999.0,  999.0,  999.0,  999.0,  999.0,  999.0,  999.0,  999.0,  999.0,  999.0,  999.0,  999.0,  999.0,  999.0,  999.0,  999.0,  999.0,  999.0,  999.0,  999.0,  999.0,  999.0,  999.0,  999.0,  999.0,  999.0,  999.0,  999.0,  999.0,  999.0,  999.0,  999.0,  999.0,  999.0,  999.0,  999.0
2000/12/03 20:00,  999.0,    0.7,   -5.4,   -4.8,   -2.6,   -1.6,   -4.0,   -3.3,  999.0,   -6.0,   -0.7,   -2.7,  999.0,    3.1,   -0.2,    1.3,    1.5,    2.9,  999.0,  999.0,    2.8,  999.0,  999.0,  999.0,  999.0,  999.0,  999.0,  999.0,  999.0,  999.0,  999.0,  999.0,  999.0,  999.0,  999.0,  999.0,  999.0,  999.0,  999.0,  999.0,  999.0,  999.0,  999.0,  999.0,  999.0,  999.0,  999.0,  999.0,  999.0,  999.0,  999.0,  999.0,  999.0,  999.0,  999.0,  999.0,  999.0,  999.0
2000/12/03 20:10,  999.0,  999.0,    3.3,   -0.0,   -1.2,   -1.4,   -0.2,   -7.2,    1.0,   -2.4,   -2.9,    4.6,   -0.2,    1.1,    5.5,    0.9,   -0.9,    0.1,    0.4,  999.0,  999.0,  999.0,  999.0,  999.0,  999.0,  999.0,  999.0,  999.0,  999.0,  999.0,  999.0,  999.0,  999.0,  999.0,  999.0,  999.0,  999.0,  999.0,  999.0,  999.0,  999.0,  999.0,  999.0,  999.0,  999.0,  999.0,  999.0,  999.0,  999.0,  999.0,  999.0,  999.0,  999.0,  999.0,  999.0,  999.0,  999.0,  999.0
2000/12/03 20:20,  999.0,  999.0,   -0.8,   -1.0,   -0.5,   -3.4,   -2.8,    2.1,    0.9,   -3.2,   -4.9,  999.0,   -3.5,    6.9,    1.3,   -3.3,   -2.9,    1.3,   -1.0,  999.0,  999.0,  999.0,  999.0,  999.0,  999.0,  999.0,  999.0,  999.0,  999.0,  999.0,  999.0,  999.0,  999.0,  999.0,  999.0,  999.0,  999.0,  999.0,  999.0,  999.0,  999.0,  999.0,  999.0,  999.0,  999.0,  999.0,  999.0,  999.0,  999.0,  999.0,  999.0,  999.0,  999.0,  999.0,  999.0,  999.0,  999.0,  999.0
2000/12/03 20:30,  999.0,  999.0,    4.3,   -0.7,    0.9,  999.0,    2.5,   -0.5,    4.3,    2.4,   -0.1,    0.3,    1.9,    2.7,    7.9,    0.6,    3.6,    2.9,    4.8,  999.0,  999.0,  999.0,  999.0,  999.0,  999.0,  999.0,  999.0,  999.0,  999.0,  999.0,  999.0,  999.0,  999.0,  999.0,  999.0,  999.0,  999.0,  999.0,  999.0,  999.0,  999.0,  999.0,  999.0,  999.0,  999.0,  999.0,  999.0,  999.0,  999.0,  999.0,  999.0,  999.0,  999.0,  999.0,  999.0,  999.0,  999.0,  999.0
2000/12/03 20:40,  999.0,    3.2,    2.0,    5.1,    0.5,   -0.0,    1.0,  999.0,  999.0,  999.0,    1.0,   -0.3,    1.4,   -1.1,    2.2,    4.5,    4.0,   -0.4,    4.4,  999.0,    5.0,  999.0,  999.0,  999.0,   11.0,  999.0,  999.0,  999.0,  999.0,  999.0,  999.0,  999.0,  999.0,  999.0,  999.0,  999.0,  999.0,  999.0,  999.0,  999.0,  999.0,  999.0,  999.0,  999.0,  999.0,  999.0,  999.0,  999.0,  999.0,  999.0,  999.0,  999.0,  999.0,  999.0,  999.0,  999.0,  999.0,  999.0
2000/12/03 20:50,  999.0,    4.2,    1.8,    0.2,    1.3,    0.4,   -2.7,    2.3,  999.0,  999.0,  999.0,    2.5,    3.2,    3.6,    2.9,    1.5,    0.1,    2.3,    1.7,    7.5,    7.3,  999.0,  999.0,   13.0,   14.8,  999.0,  999.0,  999.0,  999.0,  999.0,  999.0,  999.0,  999.0,  999.0,  999.0,  999.0,  999.0,  999.0,  999.0,  999.0,  999.0,  999.0,  999.0,  999.0,  999.0,  999.0,  999.0,  999.0,  999.0,  999.0,  999.0,  999.0,  999.0,  999.0,  999.0,  999.0,  999.0,  999.0
2000/12/03 21:00,  999.0,    0.7,   -1.5,    1.4,    0.9,    0.5,    2.7,  999.0,   -4.4,    0.3,    1.6,    1.1,   -1.3,    2.4,    2.0,    3.4,    2.2,    7.4,    2.1,   -0.3,  999.0,  999.0,    4.9,   10.1,  999.0,   13.5,  999.0,  999.0,  999.0,  999.0,   19.6,  999.0,  999.0,   21.0,  999.0,  999.0,  999.0,  999.0,  999.0,  999.0,  999.0,  999.0,  999.0,  999.0,  999.0,  999.0,  999.0,  999.0,  999.0,  999.0,  999.0,  999.0,  999.0,  999.0,  999.0,  999.0,  999.0,  999.0
2000/12/03 21:10,  999.0,    3.5,    4.6,    0.1,    1.1,    1.9,    1.0,   -4.7,   -1.9,    1.4,   -0.8,    2.9,    0.3,    2.8,    1.8,   10.3,    4.5,    4.5,  999.0,  999.0,  999.0,    1.4,    0.8,  999.0,    6.6,  999.0,  999.0,  999.0,  999.0,  999.0,  999.0,  999.0,  999.0,   18.6,  999.0,  999.0,  999.0,  999.0,  999.0,  999.0,  999.0,  999.0,  999.0,  999.0,  999.0,  999.0,  999.0,  999.0,  999.0,  999.0,  999.0,  999.0,  999.0,  999.0,  999.0,  999.0,  999.0,  999.0
2000/12/03 21:20,  999.0,  999.0,    1.8,    0.0,    0.2,   -0.6,   -2.7,   -3.9,  999.0,    3.6,  999.0,    0.5,    0.2,    2.3,    2.3,    0.6,    3.4,   -0.2,   -0.6,  999.0,  999.0,    3.1,   -2.3,    9.9,  999.0,  999.0,  999.0,  999.0,   22.0,  999.0,  999.0,  999.0,  999.0,  999.0,  999.0,  999.0,  999.0,  999.0,   21.1,  999.0,  999.0,  999.0,  999.0,  999.0,  999.0,  999.0,  999.0,  999.0,  999.0,  999.0,  999.0,  999.0,  999.0,  999.0,  999.0,  999.0,  999.0,  999.0
2000/12/03 21:30,  999.0,    0.3,   -0.9,  999.0,   -1.8,    0.7,    0.2,    1.3,   -0.9,    0.3,   -5.1,  999.0,    0.8,   -0.3,   -3.6,  999.0,  999.0,   -0.1,  999.0,   -1.4,  999.0,    5.9,  999.0,    0.5,  999.0,  999.0,  999.0,  999.0,  999.0,  999.0,  999.0,  999.0,  999.0,  999.0,  999.0,  999.0,  999.0,  999.0,  999.0,  999.0,  999.0,  999.0,  999.0,  999.0,  999.0,  999.0,  999.0,   41.8,  999.0,   43.0,   41.5,  999.0,  999.0,  999.0,  999.0,   41.8,  999.0,   42.4
2000/12/03 21:40,  999.0,  999.0,  999.0,   -3.0,   -2.0,    1.2,   -0.7,    1.6,    1.4,   -0.1,    0.5,   -0.0,    1.6,   -0.7,   -5.2,    2.5,    2.9,    0.9,  999.0,  999.0,  999.0,    6.1,    5.1,   10.7,  999.0,  999.0,  999.0,  999.0,  999.0,  999.0,  999.0,  999.0,  999.0,  999.0,  999.0,  999.0,  999.0,  999.0,  999.0,  999.0,  999.0,  999.0,   41.5,   42.2,   42.0,   41.7,  999.0,   42.2,   41.2,   42.1,   41.8,   42.0,   41.9,   42.1,   42.3,   42.6,  999.0,  999.0
2000/12/03 21:50,  999.0,    2.2,    0.9,    2.2,    3.9,    3.0,    3.2,    0.1,    0.4,    2.5,    1.5,    0.6,   -2.6,   -1.6,   -0.6,    2.3,  999.0,  999.0,  999.0,  999.0,  999.0,    5.9,  999.0,    7.5,  999.0,  999.0,  999.0,  999.0,  999.0,  999.0,  999.0,  999.0,  999.0,  999.0,  999.0,  999.0,  999.0,  999.0,  999.0,  999.0,   41.4,  999.0,  999.0,   42.7,   41.8,   41.6,  999.0,   41.7,  999.0,   41.4,  999.0,  999.0,   41.5,   41.5,  999.0,   41.3,  999.0,   42.0
2000/12/03 22:00,  999.0,    2.4,    1.4,   -2.4,   -0.2,   -0.2,   -0.7,    1.9,    0.9,   -0.2,    0.4,    0.7,   -5.3,  999.0,  999.0,   -2.7,   -0.0,  999.0,    2.0,    4.9,  999.0,  999.0,  999.0,  999.0,  999.0,  999.0,  999.0,  999.0,  999.0,  999.0,  999.0,  999.0,  999.0,  999.0,  999.0,  999.0,  999.0,   42.2,  999.0,  999.0,   41.1,   41.6,   41.8,   41.0,   42.4,   41.9,   42.2,   42.6,   41.9,   41.9,   41.5,  999.0,   41.1,  999.0,  999.0,  999.0,   41.6,  999.0
2000/12/03 22:10,  999.0,    1.8,   -0.5,    0.8,    0.9,  999.0,    3.0,   -1.3,   -0.0,  999.0,   -0.7,    2.0,   -0.4,  999.0,    0.9,   -0.5,    1.2,   -2.2,    4.6,    6.4,  999.0,  999.0,  999.0,  999.0,  999.0,  999.0,  999.0,  999.0,  999.0,  999.0,  999.0,  999.0,  999.0,  999.0,  999.0,  999.0,  999.0,  999.0,  999.0,  999.0,  999.0,  999.0,  999.0,  999.0,  999.0,  999.0,  999.0,  999.0,  999.0,  999.0,  999.0,  999.0,  999.0,  999.0,  999.0,  999.0,  999.0,  999.0
2000/12/03 22:20,  999.0,    0.1,  999.0,    4.0,   -3.5,   -0.9,    0.4,   -2.4,   -2.2,   -0.3,   -2.0,  999.0,    6.4,   -1.9,   -4.0,    9.8,   -0.1,   -4.1,   -0.7,   11.5,  999.0,  999.0,  999.0,   21.0,   25.2,  999.0,  999.0,  999.0,  999.0,  999.0,  999.0,  999.0,  999.0,  999.0,  999.0,  999.0,  999.0,  999.0,  999.0,  999.0,  999.0,  999.0,  999.0,  999.0,  999.0,  999.0,  999.0,  999.0,  999.0,  999.0,  999.0,  999.0,  999.0,  999.0,  999.0,  999.0,  999.0,  999.0
2000/12/03 22:30,  999.0,    1.9,   -2.2,   -1.3,    3.5,   -2.6,    1.4,   -2.7,   -3.2,    0.8,    0.5,   -2.1,    2.2,   -0.4,    2.6,    2.9,   -0.2,   -2.1,   -2.0,  999.0,    1.0,  999.0,  999.0,  999.0,  999.0,  999.0,  999.0,  999.0,  999.0,  999.0,  999.0,  999.0,  999.0,  999.0,  999.0,  999.0,  999.0,  999.0,  999.0,  999.0,  999.0,  999.0,  999.0,  999.0,  999.0,  999.0,  999.0,   -0.7,  999.0,   -1.5,  999.0,   -0.3,  999.0,  999.0,  999.0,   -1.2,  999.0,  999.0
2000/12/03 22:40,  999.0,    1.3,   -0.7,    1.3,   -0.1,  999.0,    2.3,    0.7,    0.6,   -0.4,  999.0,  999.0,  999.0,    4.2,  999.0,  999.0,    1.9,  999.0,  999.0,  999.0,    8.0,  999.0,  999.0,  999.0,  999.0,  999.0,  999.0,  999.0,  999.0,  999.0,  999.0,  999.0,  999.0,  999.0,  999.0,  999.0,  999.0,  999.0,  999.0,  999.0,  999.0,  999.0,  999.0,  999.0,  999.0,  999.0,  999.0,  999.0,  999.0,   -0.9,  999.0,  999.0,  999.0,  999.0,  999.0,   -1.2,  999.0,  999.0
2000/12/03 22:50,  999.0,   -2.1,   -1.7,   -1.2,    4.5,    0.9,    0.3,  999.0,  999.0,    0.4,  999.0,    4.7,    6.3,   -6.3,   -6.0,  999.0,  999.0,  999.0,    6.7,    7.1,  999.0,  999.0,  999.0,  999.0,  999.0,  999.0,  999.0,  999.0,  999.0,  999.0,  999.0,  999.0,  999.0,  999.0,  999.0,  999.0,   -0.4,   -1.3,   -0.4,   -0.6,   -0.9,   -0.2,   -0.4,   -0.7,   -0.3,  999.0,   -0.3,   -0.6,   -1.0,  999.0,  999.0,   -0.8,  999.0,  999.0,   -1.0,   -0.3,   -0.4,   -0.5
2000/12/03 23:00,  999.0,    1.8,   -1.4,    2.3,    0.6,    1.1,    0.1,    2.5,    0.3,  999.0,   -4.8,   -4.3,  999.0,   -0.5,    2.4,    1.4,    2.5,  999.0,  999.0,    3.5,    4.2,  999.0,  999.0,  999.0,  999.0,  999.0,  999.0,  999.0,  999.0,  999.0,  999.0,  999.0,    0.1,   -0.6,   -0.2,   -0.7,   -0.6,  999.0,   -0.8,   -0.5,  999.0,   -0.4,   -0.8,   -0.7,   -2.8,  999.0,  -12.4,   -1.3,   -0.4,   -2.2,  -13.4,   -1.3,  -30.3,   -7.3,   -0.3,   -1.0,   -0.8,   -0.7
2000/12/03 23:10,  999.0,   -0.0,   -0.3,    1.8,   -0.1,   -1.9,    0.4,    2.0,    1.0,    1.6,  999.0,    1.1,    0.1,  999.0,    4.4,  999.0,  999.0,    3.3,    6.7,  999.0,  999.0,  999.0,  999.0,  999.0,  999.0,    0.7,  999.0,  999.0,  999.0,   -4.4,   -2.7,    0.1,   -0.5,    0.4,   -1.0,   -0.3,   -0.7,   -0.5,   -1.1,   -1.0,   -0.7,   -0.3,    0.1,  999.0,  999.0,   -0.8,   -0.1,  999.0,   -0.8,   -0.0,   -0.3,   -0.3,    0.2,   -0.9,   -1.1,   -1.4,   -0.5,   -0.8
2000/12/03 23:20,  999.0,    0.8,   -1.0,    1.9,    1.9,   -0.2,  999.0,    3.9,    0.2,   -0.9,  -11.0,   -1.2,  999.0,    1.5,  999.0,  999.0,  999.0,   -4.0,  999.0,  999.0,  999.0,  999.0,  999.0,  999.0,  999.0,  999.0,  999.0,  999.0,  999.0,   -4.6,   -3.2,   -0.3,   -0.6,   -1.2,   -0.7,   -0.8,   -0.8,   -1.5,   -0.5,   -0.6,   -0.9,   -0.5,   -0.6,   -0.8,   -1.9,   -0.9,   -0.3,   -0.8,   -1.3,   -0.1,   -0.9,   -0.6,   -0.7,   -0.4,   -1.5,   -0.5,   -1.1,   -0.6
2000/12/03 23:30,  999.0,   -0.9,   -0.8,    2.0,    0.0,  999.0,  999.0,    1.1,    0.6,  999.0,  999.0,  999.0,  999.0,  999.0,    3.5,  999.0,  999.0,    5.7,  999.0,  999.0,  999.0,  999.0,    0.7,  999.0,  999.0,  999.0,  999.0,  999.0,  999.0,   -4.1,   -2.3,  999.0,  999.0,  999.0,   -1.7,  999.0,   -1.7,   -1.2,   -0.8,   -1.0,   -0.6,  999.0,   -0.7,  999.0,   -1.4,  999.0,   -0.3,   -0.6,  999.0,  999.0,   -1.0,  999.0,   -0.5,  999.0,   -0.7,   -0.6,   -1.4,   -0.9
2000/12/03 23:40,  999.0,    0.3,    1.7,    0.5,  999.0,    0.3,    0.1,    2.1,    1.2,  999.0,  999.0,  999.0,    0.1,    0.2,  999.0,  999.0,  999.0,  999.0,  999.0,  999.0,  999.0,  999.0,  999.0,  999.0,  999.0,  999.0,  999.0,  999.0,  999.0,  -10.2,   -9.3,  -20.5,   -7.6,  -19.5,  -12.0,   -4.0,  -11.0,   -2.4,  -10.1,   -0.7,  -10.0,  -19.4,  999.0,  -18.9,  -18.1,  999.0,  -18.4,  -18.3,  999.0,  -17.7,  -17.5,  -17.7,  -17.3,  -17.9,  999.0,  999.0,  999.0,  999.0
2000/12/03 23:50,  999.0,   -0.8,    1.5,    1.8,    2.8,    0.7,   -0.5,    0.0,    1.8,    2.4,    1.1,  999.0,  999.0,  999.0,  999.0,   -0.1,    1.3,  999.0,  999.0,  999.0,  999.0,  999.0,  999.0,  999.0,  999.0,  999.0,  999.0,  999.0,  -30.7,  -30.0,  -32.5,  -31.1,  -32.9,  -31.5,  -34.9,  -33.2,  -33.3,  -35.9,  -35.5,  -35.1,  -37.3,  -37.7,  -36.8,  -40.2,  -40.5,  -38.2,  -40.9,  -39.8,  999.0,  -41.5,  -41.3,  999.0,  -41.9,  999.0,  999.0,  999.0,  -41.2,  999.0
